[[{"header":{"parameterUnit":"m.s-1","parameterCategory":1,"la1":30.6,"la2":29.2853,"lo1":-89.7004,"lo2":-87.6739,"dy":0.0162,"dx":0.0183,"nx":112,"ny":82,"refTime":"2026-03-07T12:00:00:Z","depth":0,"parameterNumber":2,"parameterNumberName":"U-component_of_WINDS"},"data":[0.0,0.0,0.0,0.0,0.0,0.0,0.0,0.0,0.0,0.0,0.0,0.0,0.0,0.0,0.0,0.0,0.0,0.0,0.0,0.0,0.0,0.0,0.0,0.0,0.0,0.0,0.0,0.0,0.0,0.0,0.0,0.0,0.0,0.0,0.0,0.0,0.0,0.0,0.0,0.0,0.0,0.0,0.0,0.0,0.0,0.0,0.0,0.0,0.0,0.0,0.0,0.0,0.0,0.0,0.0,0.0,0.0,0.0,0.0,0.0,0.0,0.0,0.0,0.0,0.0,0.0,0.0,0.0,0.0,0.0,0.0,0.0,0.0,0.0,0.0,0.0,0.0,0.0,0.0,0.0,0.0,0.0,0.0,0.0,0.0,0.0,0.0,0.0,0.0,0.0,0.0,6.6741,6.9695,7.1448,7.1236,7.0295,6.8642,6.6051,0.0,0.0,0.0,0.0,0.0,0.0,0.0,0.0,0.0,0.0,0.0,0.0,0.0,0.0,0.0,0.0,0.0,0.0,0.0,0.0,0.0,0.0,0.0,0.0,0.0,0.0,0.0,0.0,0.0,0.0,0.0,0.0,0.0,0.0,0.0,0.0,0.0,0.0,0.0,0.0,0.0,0.0,0.0,0.0,0.0,0.0,0.0,0.0,0.0,0.0,0.0,0.0,0.0,0.0,0.0,0.0,0.0,0.0,0.0,0.0,0.0,0.0,0.0,0.0,0.0,0.0,0.0,0.0,0.0,0.0,0.0,0.0,0.0,0.0,0.0,0.0,0.0,0.0,0.0,0.0,0.0,0.0,0.0,0.0,0.0,0.0,0.0,0.0,0.0,0.0,0.0,0.0,0.0,0.0,0.0,0.0,0.0,0.0,0.0,0.0,0.0,0.0,0.0,0.0,6.4273,6.8299,7.047,7.1534,7.1218,7.038,6.8722,6.6076,0.0,0.0,0.0,0.0,0.0,0.0,0.0,0.0,0.0,0.0,0.0,0.0,0.0,0.0,0.0,0.0,0.0,0.0,0.0,0.0,0.0,0.0,0.0,0.0,0.0,0.0,0.0,0.0,0.0,0.0,0.0,0.0,0.0,0.0,0.0,0.0,0.0,0.0,0.0,0.0,0.0,0.0,0.0,0.0,0.0,0.0,0.0,0.0,0.0,0.0,0.0,0.0,0.0,0.0,0.0,0.0,0.0,0.0,0.0,0.0,0.0,0.0,0.0,0.0,0.0,0.0,0.0,0.0,0.0,0.0,0.0,0.0,0.0,0.0,0.0,0.0,0.0,0.0,0.0,0.0,0.0,0.0,0.0,0.0,0.0,0.0,0.0,0.0,0.0,0.0,0.0,0.0,0.0,0.0,0.0,0.0,0.0,0.0,0.0,0.0,0.0,0.0,0.0,6.3418,6.5697,6.9553,7.099,7.1628,7.1377,7.0465,6.8767,6.6076,6.5089,0.0,0.0,0.0,0.0,0.0,0.0,0.0,0.0,0.0,0.0,0.0,0.0,0.0,0.0,0.0,0.0,0.0,0.0,0.0,0.0,0.0,0.0,0.0,0.0,0.0,0.0,0.0,0.0,0.0,0.0,0.0,0.0,0.0,0.0,0.0,0.0,0.0,0.0,0.0,0.0,0.0,0.0,0.0,0.0,0.0,0.0,0.0,0.0,0.0,0.0,0.0,0.0,0.0,0.0,0.0,0.0,0.0,0.0,0.0,0.0,0.0,0.0,0.0,0.0,0.0,0.0,0.0,0.0,0.0,0.0,0.0,0.0,0.0,0.0,0.0,0.0,0.0,0.0,0.0,0.0,0.0,0.0,0.0,0.0,0.0,0.0,0.0,0.0,0.0,0.0,0.0,0.0,0.0,0.0,0.0,0.0,0.0,0.0,0.0,0.0,0.0,0.0,6.5276,6.742,7.066,7.1472,7.17,7.1559,7.0368,6.8622,6.6097,6.4883,0.0,0.0,0.0,0.0,0.0,0.0,0.0,0.0,0.0,0.0,0.0,0.0,0.0,0.0,0.0,0.0,0.0,0.0,0.0,0.0,0.0,0.0,0.0,0.0,0.0,0.0,0.0,0.0,0.0,0.0,0.0,0.0,0.0,0.0,0.0,0.0,0.0,0.0,0.0,0.0,0.0,0.0,0.0,0.0,0.0,0.0,0.0,0.0,0.0,0.0,0.0,0.0,0.0,0.0,0.0,0.0,0.0,0.0,0.0,0.0,0.0,0.0,0.0,0.0,0.0,0.0,0.0,0.0,0.0,0.0,0.0,0.0,0.0,0.0,0.0,0.0,0.0,0.0,0.0,0.0,0.0,0.0,0.0,0.0,0.0,0.0,0.0,0.0,0.0,0.0,0.0,0.0,0.0,0.0,0.0,0.0,0.0,0.0,0.0,0.0,0.0,0.0,6.633,6.8942,7.1636,7.1943,7.1916,7.17,7.0017,6.8136,6.6205,6.4386,0.0,0.0,0.0,0.0,0.0,0.0,0.0,0.0,0.0,0.0,0.0,0.0,0.0,0.0,0.0,0.0,0.0,0.0,0.0,0.0,0.0,0.0,0.0,0.0,0.0,0.0,0.0,0.0,0.0,0.0,0.0,0.0,0.0,0.0,0.0,0.0,0.0,0.0,0.0,0.0,0.0,0.0,0.0,0.0,0.0,0.0,0.0,0.0,0.0,0.0,0.0,0.0,0.0,0.0,0.0,0.0,0.0,0.0,0.0,0.0,0.0,0.0,0.0,0.0,0.0,0.0,0.0,0.0,0.0,0.0,0.0,0.0,0.0,0.0,0.0,0.0,0.0,0.0,0.0,0.0,0.0,0.0,0.0,0.0,0.0,0.0,0.0,0.0,0.0,0.0,0.0,0.0,0.0,0.0,0.0,0.0,0.0,0.0,0.0,0.0,0.0,0.0,6.6004,6.8513,0.0,7.1987,7.1924,7.1711,7.0563,6.8769,6.6264,0.0,0.0,0.0,0.0,0.0,0.0,0.0,0.0,0.0,0.0,0.0,0.0,0.0,0.0,0.0,0.0,0.0,0.0,0.0,0.0,0.0,0.0,0.0,0.0,0.0,0.0,0.0,0.0,0.0,0.0,0.0,0.0,0.0,0.0,0.0,0.0,0.0,0.0,0.0,0.0,0.0,0.0,0.0,0.0,0.0,0.0,0.0,0.0,0.0,0.0,0.0,0.0,0.0,0.0,0.0,0.0,0.0,0.0,0.0,0.0,0.0,0.0,0.0,0.0,0.0,0.0,0.0,0.0,0.0,0.0,0.0,0.0,0.0,0.0,0.0,0.0,0.0,0.0,0.0,0.0,0.0,0.0,0.0,0.0,0.0,0.0,0.0,0.0,0.0,0.0,0.0,0.0,0.0,0.0,0.0,0.0,0.0,0.0,0.0,0.0,0.0,0.0,6.4101,6.6249,6.8942,0.0,7.2846,7.2984,7.3358,7.2033,6.9876,6.6794,0.0,0.0,0.0,0.0,0.0,0.0,0.0,0.0,0.0,0.0,0.0,0.0,0.0,0.0,0.0,0.0,0.0,0.0,0.0,0.0,0.0,0.0,0.0,0.0,0.0,0.0,0.0,0.0,0.0,0.0,0.0,0.0,0.0,0.0,0.0,0.0,0.0,0.0,0.0,0.0,0.0,0.0,0.0,0.0,0.0,0.0,0.0,0.0,0.0,0.0,0.0,0.0,0.0,0.0,0.0,0.0,0.0,0.0,0.0,0.0,0.0,0.0,0.0,0.0,0.0,0.0,0.0,0.0,0.0,0.0,0.0,0.0,0.0,0.0,0.0,0.0,0.0,0.0,0.0,0.0,0.0,0.0,0.0,0.0,0.0,0.0,0.0,0.0,0.0,0.0,0.0,0.0,0.0,0.0,0.0,0.0,0.0,0.0,0.0,0.0,0.0,0.0,6.4219,6.7342,7.0816,7.4296,7.4647,7.5311,7.6951,7.4528,7.1455,0.0,0.0,0.0,0.0,0.0,0.0,0.0,0.0,0.0,0.0,0.0,0.0,0.0,0.0,0.0,0.0,0.0,0.0,0.0,0.0,0.0,0.0,0.0,0.0,0.0,0.0,0.0,0.0,0.0,0.0,0.0,0.0,0.0,0.0,0.0,0.0,0.0,0.0,0.0,0.0,0.0,0.0,0.0,0.0,0.0,0.0,0.0,0.0,0.0,0.0,0.0,0.0,0.0,0.0,0.0,0.0,0.0,0.0,0.0,0.0,0.0,0.0,0.0,0.0,0.0,0.0,0.0,0.0,0.0,0.0,0.0,0.0,0.0,0.0,0.0,0.0,0.0,0.0,0.0,0.0,0.0,0.0,0.0,0.0,0.0,0.0,0.0,0.0,0.0,0.0,0.0,0.0,0.0,0.0,0.0,0.0,0.0,0.0,0.0,0.0,0.0,0.0,0.0,0.0,7.1069,7.506,7.7872,7.8184,7.8145,7.8028,7.618,7.2916,6.7991,0.0,0.0,0.0,0.0,0.0,0.0,0.0,0.0,0.0,0.0,0.0,0.0,0.0,0.0,0.0,0.0,0.0,0.0,0.0,0.0,0.0,0.0,0.0,0.0,0.0,0.0,0.0,0.0,0.0,0.0,0.0,0.0,0.0,0.0,0.0,0.0,0.0,0.0,0.0,0.0,0.0,0.0,0.0,0.0,0.0,0.0,0.0,0.0,0.0,0.0,0.0,0.0,0.0,0.0,0.0,0.0,0.0,0.0,0.0,0.0,0.0,0.0,0.0,0.0,0.0,0.0,0.0,0.0,0.0,0.0,0.0,0.0,0.0,0.0,0.0,0.0,0.0,0.0,0.0,0.0,0.0,0.0,0.0,0.0,0.0,0.0,0.0,0.0,0.0,0.0,0.0,0.0,0.0,0.0,0.0,0.0,0.0,0.0,0.0,0.0,0.0,0.0,6.7828,7.2674,7.7137,8.0386,8.0739,8.0817,8.0973,7.937,7.5955,7.0211,0.0,0.0,0.0,0.0,0.0,0.0,0.0,0.0,0.0,0.0,0.0,0.0,0.0,0.0,0.0,0.0,0.0,0.0,0.0,0.0,0.0,0.0,0.0,0.0,0.0,0.0,0.0,0.0,0.0,0.0,0.0,0.0,0.0,0.0,0.0,0.0,0.0,0.0,0.0,0.0,0.0,0.0,0.0,0.0,0.0,0.0,0.0,0.0,0.0,0.0,0.0,0.0,0.0,0.0,0.0,0.0,0.0,0.0,0.0,0.0,0.0,0.0,0.0,0.0,0.0,0.0,0.0,0.0,0.0,0.0,0.0,0.0,0.0,0.0,0.0,0.0,0.0,0.0,0.0,0.0,0.0,0.0,0.0,0.0,0.0,0.0,0.0,0.0,0.0,0.0,0.0,0.0,0.0,0.0,0.0,0.0,0.0,0.0,0.0,0.0,0.0,0.0,6.8119,7.3225,7.8188,8.2343,8.2773,8.3437,8.5,8.3437,7.9805,7.3828,0.0,0.0,0.0,0.0,0.0,0.0,0.0,0.0,0.0,0.0,0.0,0.0,0.0,0.0,0.0,0.0,0.0,0.0,0.0,0.0,0.0,0.0,0.0,0.0,0.0,0.0,0.0,0.0,0.0,0.0,0.0,0.0,0.0,0.0,0.0,0.0,0.0,0.0,0.0,0.0,0.0,0.0,0.0,0.0,0.0,0.0,0.0,0.0,0.0,0.0,0.0,0.0,0.0,0.0,0.0,0.0,0.0,0.0,0.0,0.0,6.6562,0.0,0.0,0.0,0.0,0.0,0.0,0.0,0.0,0.0,0.0,0.0,0.0,0.0,0.0,0.0,0.0,0.0,0.0,0.0,0.0,0.0,0.0,0.0,0.0,0.0,0.0,0.0,0.0,0.0,0.0,0.0,0.0,0.0,0.0,0.0,0.0,0.0,0.0,0.0,0.0,0.0,7.0859,7.7499,8.3085,8.6054,8.6406,8.6523,8.6914,8.5312,8.1992,7.6523,0.0,0.0,0.0,0.0,0.0,0.0,0.0,0.0,0.0,0.0,0.0,0.0,0.0,0.0,0.0,0.0,0.0,0.0,0.0,0.0,0.0,0.0,0.0,0.0,0.0,0.0,0.0,0.0,0.0,0.0,0.0,0.0,0.0,0.0,0.0,0.0,0.0,0.0,0.0,0.0,0.0,0.0,0.0,0.0,0.0,0.0,0.0,0.0,0.0,0.0,0.0,0.0,0.0,0.0,0.0,0.0,0.0,0.0,0.0,0.0,0.0,6.789,0.0,0.0,0.0,0.0,0.0,0.0,0.0,0.0,0.0,0.0,0.0,0.0,0.0,0.0,0.0,0.0,0.0,0.0,0.0,0.0,0.0,0.0,0.0,0.0,0.0,0.0,0.0,0.0,0.0,0.0,0.0,0.0,0.0,0.0,0.0,0.0,0.0,0.0,0.0,0.0,7.2259,7.9062,8.4765,8.7773,8.8086,8.8242,8.8672,8.7148,8.4258,7.9844,7.5117,0.0,0.0,0.0,0.0,0.0,0.0,0.0,0.0,0.0,0.0,0.0,0.0,0.0,0.0,0.0,0.0,0.0,0.0,0.0,0.0,0.0,0.0,0.0,0.0,0.0,0.0,0.0,0.0,0.0,0.0,0.0,0.0,0.0,0.0,0.0,0.0,0.0,0.0,0.0,0.0,0.0,0.0,0.0,0.0,0.0,0.0,0.0,0.0,0.0,0.0,0.0,0.0,0.0,7.5273,7.6172,7.6211,7.7656,7.8008,7.7344,7.4765,7.2461,7.0508,7.0312,0.0,0.0,0.0,0.0,0.0,0.0,0.0,0.0,0.0,0.0,0.0,0.0,0.0,0.0,0.0,0.0,0.0,0.0,0.0,0.0,0.0,0.0,0.0,0.0,7.3472,7.3459,6.9199,0.0,0.0,0.0,0.0,0.0,0.0,0.0,0.0,0.0,0.0,0.0,7.3306,7.9645,8.5078,8.8359,8.8711,8.9101,9.0156,8.8672,8.6406,8.3398,7.8281,7.3594,0.0,0.0,0.0,0.0,0.0,0.0,0.0,0.0,0.0,0.0,0.0,0.0,0.0,0.0,0.0,0.0,0.0,0.0,0.0,0.0,0.0,0.0,0.0,0.0,0.0,0.0,0.0,0.0,0.0,0.0,0.0,0.0,6.5703,6.4297,0.0,0.0,0.0,0.0,0.0,0.0,0.0,0.0,0.0,0.0,0.0,0.0,0.0,7.1367,7.1484,7.6172,7.8555,7.8711,8.1211,8.2422,8.2422,8.2656,8.3125,8.3789,8.4844,0.0,7.5195,7.7305,0.0,0.0,0.0,0.0,0.0,0.0,0.0,0.0,0.0,0.0,0.0,0.0,0.0,0.0,0.0,0.0,0.0,0.0,0.0,0.0,0.0,0.0,7.918,7.8633,7.9257,7.9804,0.0,7.3158,6.7594,6.6433,6.5702,0.0,0.0,0.0,0.0,0.0,0.0,0.0,7.5117,8.0937,8.5742,8.8437,8.8711,8.9375,9.0976,8.9531,8.8047,8.6875,8.1914,7.7694,7.4796,7.0483,0.0,0.0,0.0,0.0,0.0,0.0,0.0,0.0,0.0,0.0,0.0,0.0,0.0,0.0,0.0,0.0,0.0,0.0,0.0,0.0,0.0,0.0,0.0,0.0,0.0,0.0,0.0,0.0,0.0,6.625,6.7851,6.4687,6.7851,6.8398,0.0,0.0,0.0,0.0,0.0,0.0,0.0,0.0,0.0,7.3164,7.4805,7.6562,7.8515,8.1719,8.3828,8.4765,8.6914,8.7929,8.7929,8.8437,8.8867,8.9258,9.0039,8.8711,8.5742,8.25,7.8906,7.5273,0.0,0.0,0.0,0.0,7.2109,7.2851,7.5273,7.5781,7.543,7.5586,0.0,0.0,0.0,0.0,0.0,0.0,0.0,0.0,0.0,0.0,8.1758,8.4765,8.5078,8.4765,8.5234,8.1249,7.6439,0.0,7.0459,6.8205,6.5141,0.0,0.0,0.0,0.0,0.0,7.6992,8.2187,8.6601,8.914,8.9414,9.0156,9.1875,9.0898,8.9609,8.8242,8.5156,8.2187,7.9529,7.5177,7.1455,0.0,0.0,0.0,0.0,0.0,0.0,0.0,0.0,0.0,0.0,0.0,0.0,0.0,0.0,0.0,0.0,0.0,0.0,0.0,0.0,0.0,0.0,0.0,0.0,0.0,0.0,0.0,0.0,6.8164,7.0195,6.6094,7.0195,7.1133,0.0,0.0,0.0,0.0,0.0,0.0,7.2305,7.3398,7.5586,7.9062,8.0234,8.2109,8.4883,8.664,8.8242,8.9726,9.1015,9.1758,9.1992,9.2656,9.2929,9.2969,9.3164,9.3633,9.3711,8.7031,8.2773,8.0234,7.7617,7.6601,7.6601,7.6562,7.7109,7.8281,8.1289,8.2187,8.1875,8.1054,7.9023,7.6133,7.207,0.0,0.0,0.0,0.0,7.414,7.9062,8.164,8.414,8.8867,8.9375,8.8867,8.8984,8.7031,8.371,0.0,7.578,7.3236,6.9781,0.0,0.0,0.0,0.0,7.6523,7.914,8.3398,8.7109,8.9414,8.9883,9.0625,9.2148,9.1679,9.0742,8.9453,8.7773,8.5859,8.3672,8.0023,7.6789,7.4128,0.0,0.0,0.0,0.0,0.0,0.0,0.0,0.0,0.0,0.0,0.0,0.0,0.0,0.0,0.0,0.0,0.0,0.0,0.0,0.0,0.0,0.0,0.0,0.0,0.0,0.0,0.0,0.0,0.0,6.957,7.375,0.0,0.0,0.0,0.0,7.043,7.5117,7.7656,7.6914,8.0742,8.3437,8.4492,8.6172,8.75,8.8437,9.0156,9.1484,9.2383,9.25,9.2969,9.3789,9.3828,9.3828,9.3867,9.4726,9.5078,9.4844,9.1133,8.9492,8.9101,8.6562,8.5547,8.5273,8.2812,8.2461,8.3125,8.25,8.3359,8.4961,8.6523,8.3633,7.9336,7.8281,7.5625,0.0,0.0,7.668,7.9687,8.164,8.5234,8.8594,8.9726,9.1211,9.1914,9.0273,8.7929,8.5312,0.0,8.1195,7.9465,7.6054,0.0,7.5117,7.4258,7.6523,7.9219,8.1797,8.4492,8.6875,8.8594,8.9492,9.0351,9.1289,9.1328,9.125,9.1172,8.9531,8.8125,8.7187,8.5385,8.2007,7.6822,7.3924,0.0,0.0,0.0,0.0,0.0,0.0,0.0,0.0,0.0,0.0,0.0,0.0,0.0,0.0,0.0,0.0,0.0,0.0,0.0,0.0,0.0,0.0,0.0,0.0,0.0,0.0,0.0,0.0,7.3711,7.8672,0.0,7.6875,7.6992,7.7344,7.7344,8.0625,8.2969,8.3789,8.5781,8.7812,8.9804,9.0469,9.1445,9.2851,9.3515,9.4258,9.5117,9.5117,9.5273,9.5586,9.5586,9.5586,9.5547,9.5312,9.582,9.664,9.4297,9.2344,9.0703,8.9219,8.8633,8.8594,8.8242,8.8984,9.0195,8.9883,9.0156,9.0429,8.8789,8.6289,8.3515,8.1523,8.0469,8.0,8.0312,8.207,8.4414,8.6679,8.9219,9.1562,9.3008,9.3398,9.3437,9.3359,9.1328,8.9219,8.8281,8.4256,8.0426,7.8632,7.8359,7.8047,7.7226,7.9297,8.1679,8.3711,8.5781,8.7461,8.8594,8.8984,8.9531,9.039,9.0469,9.0234,8.9648,8.9023,8.8318,8.744,8.6272,8.4212,8.1076,7.8294,7.3428,0.0,0.0,0.0,0.0,0.0,0.0,0.0,0.0,0.0,0.0,0.0,0.0,0.0,0.0,0.0,0.0,0.0,0.0,0.0,0.0,0.0,0.0,0.0,0.0,0.0,0.0,7.8047,7.8047,8.3125,8.5508,8.2617,8.3086,8.3594,8.3594,8.6289,8.832,8.9179,9.0273,9.1679,9.3437,9.3476,9.4023,9.5195,9.5195,9.5625,9.6484,9.6484,9.664,9.6914,9.6914,9.6914,9.6875,9.6289,9.6679,9.7578,9.6211,9.4609,9.2969,9.2109,9.1758,9.1797,9.207,9.3086,9.4375,9.4687,9.4219,9.3125,9.1094,8.8711,8.6328,8.457,8.4453,8.4922,8.4922,8.6562,8.875,9.0429,9.2383,9.4219,9.5351,9.5195,9.4844,9.5156,9.3594,9.1992,9.1406,8.7383,8.3672,8.2539,8.2344,8.164,7.9648,8.1797,8.3711,8.3984,8.6054,8.7695,8.8242,8.8789,8.9258,8.9531,8.9297,8.9023,8.8711,8.7617,8.6982,8.699,8.5535,8.4005,8.2435,7.8492,7.3588,6.7724,0.0,0.0,0.0,0.0,0.0,0.0,0.0,0.0,0.0,0.0,0.0,0.0,0.0,0.0,0.0,0.0,0.0,0.0,0.0,0.0,0.0,0.0,0.0,7.3164,7.8515,8.2344,8.2539,8.7031,8.9492,8.7929,8.8476,8.8906,8.8906,9.207,9.3594,9.2773,9.4336,9.5273,9.5273,9.5273,9.5273,9.5273,9.5273,9.5703,9.6523,9.6523,9.6953,9.7695,9.7695,9.7695,9.7695,9.7695,9.7695,9.7656,9.6875,9.6523,9.6445,9.5586,9.5234,9.5156,9.4336,9.4531,9.539,9.625,9.4844,9.2851,9.3672,9.1094,8.7656,8.7617,8.7617,8.7578,8.7617,9.0039,9.2617,9.2617,9.457,9.6484,9.6484,9.6484,9.6289,9.5469,9.457,9.3437,9.1758,9.0703,8.957,8.7851,8.7539,8.6054,8.1836,8.4062,0.0,8.2773,8.5429,8.75,8.7422,8.8906,8.9531,8.8672,8.789,8.7773,8.8594,8.5547,8.4424,8.6132,8.3554,8.167,8.0798,7.4518,7.0429,6.859,0.0,0.0,0.0,0.0,0.0,0.0,0.0,0.0,0.0,0.0,0.0,0.0,0.0,0.0,0.0,0.0,0.0,0.0,0.0,0.0,0.0,0.0,7.6094,7.5312,7.9297,8.3672,8.7422,9.082,9.3125,9.3945,9.3633,9.3398,9.3398,9.4883,9.5664,9.5429,9.6445,9.6992,9.6992,9.6992,9.6992,9.6992,9.6992,9.7148,9.7383,9.7383,9.75,9.7695,9.7695,9.7695,9.7695,9.7695,9.7695,9.7695,9.7461,9.7383,9.7304,9.6445,9.6133,9.6172,9.6523,9.6797,9.7031,9.7304,9.6523,9.5351,9.4961,9.3203,9.1094,9.0469,8.9804,8.9453,9.0078,9.1406,9.2734,9.3398,9.5,9.6484,9.6484,9.6484,9.6601,9.6953,9.5859,9.4687,9.4219,9.3437,9.1875,8.8906,8.789,8.7109,8.5898,8.5976,0.0,8.6094,8.7422,8.7656,8.582,8.6601,8.7148,8.6914,8.6094,8.625,8.7734,8.6367,8.5698,8.6197,8.4863,8.3537,8.2318,7.6645,7.3482,0.0,0.0,0.0,0.0,0.0,0.0,0.0,0.0,0.0,0.0,0.0,0.0,0.0,0.0,0.0,0.0,0.0,0.0,0.0,0.0,0.0,0.0,7.875,8.1875,8.2304,8.4804,8.8125,9.2226,9.5,9.6992,9.8008,9.7304,9.6953,9.7304,9.7461,9.7695,9.8086,9.8554,9.8633,9.8242,9.8242,9.8086,9.7695,9.7695,9.7695,9.7695,9.8086,9.8242,9.8242,9.8633,9.8594,9.8242,9.8242,9.8047,9.7734,9.8086,9.8047,0.0,0.0,0.0,0.0,0.0,9.7695,9.7695,9.7695,9.7187,9.6406,9.5898,9.457,9.3047,9.2539,9.2031,9.1758,9.2265,9.3281,9.4336,9.4844,9.5976,9.6914,9.6562,9.6211,9.6094,9.6562,9.5898,9.5078,9.4726,9.4844,0.0,9.039,8.9101,8.7929,8.6133,8.6367,8.664,8.6445,8.7734,8.8398,8.7656,8.8359,8.8867,8.8867,8.7109,0.0,0.0,0.0,8.3823,8.3341,8.2795,0.0,0.0,0.0,0.0,0.0,0.0,0.0,0.0,7.2514,7.1321,0.0,0.0,0.0,0.0,0.0,0.0,0.0,0.0,0.0,0.0,0.0,0.0,0.0,0.0,0.0,0.0,8.3047,8.8125,9.1523,9.2851,9.4297,9.6523,9.8867,10.0312,10.0312,9.9609,9.9453,10.0195,9.957,9.9492,10.0312,0.0,0.0,0.0,0.0,9.8789,9.8008,9.8008,9.8008,9.8008,9.8789,9.914,9.9179,9.9961,9.9883,9.914,9.914,9.8711,9.8047,9.8828,9.8672,9.7969,9.7773,9.7695,9.7695,9.7695,9.7695,9.7695,9.7695,0.0,0.0,9.6523,9.539,9.4023,9.3945,9.3828,9.3789,9.3867,9.5078,9.6367,9.6484,9.7109,9.7539,9.6797,9.6054,9.5469,9.5469,9.5469,9.5195,9.4219,9.5312,9.5273,9.1875,9.0742,8.8945,8.4922,8.6289,8.7226,8.5664,8.7539,8.9492,9.0859,0.0,0.0,9.2461,8.957,8.8125,8.8945,8.4492,8.1348,8.0234,8.0198,7.9283,7.7302,7.7266,7.84,8.0669,8.0669,8.1862,8.3978,7.5399,7.336,0.0,0.0,0.0,0.0,0.0,0.0,0.0,0.0,0.0,0.0,0.0,0.0,0.0,0.0,0.0,8.2734,8.789,9.2578,9.5976,9.7812,9.875,9.8554,9.957,10.0312,10.0312,10.0117,10.0117,10.0312,10.0117,10.0117,10.0312,10.0312,10.0195,10.0117,10.0,9.9961,9.9804,9.9804,9.9804,9.9804,0.0,0.0,10.0117,10.0195,10.0195,10.0,10.0,9.9961,9.9804,9.9961,9.9961,9.9648,9.8242,9.7695,9.7695,9.7695,9.7695,9.7695,9.7695,9.7617,9.7344,9.6719,9.5781,9.4804,9.4101,9.3398,0.0,9.3711,9.4648,9.5625,9.6328,9.7109,9.7656,9.75,9.7344,9.7226,9.7226,9.7226,9.6758,9.5234,9.5234,9.457,9.1797,9.1758,9.1328,8.9101,8.9179,8.9375,8.9062,9.0078,9.039,8.9336,9.0625,9.1562,9.1562,9.0312,8.9883,9.0742,8.8554,8.6737,8.5715,8.6182,8.5874,8.4585,8.5034,8.5466,8.594,8.594,8.6555,8.7594,8.3747,8.2016,0.0,0.0,0.0,0.0,0.0,0.0,0.0,0.0,0.0,0.0,0.0,7.0898,0.0,0.0,8.1914,8.6679,9.1445,9.5742,9.9179,10.0781,10.1289,10.039,10.1797,10.2695,10.2304,10.2304,10.2304,10.2304,10.1406,10.1094,10.1601,10.1601,10.1406,10.1015,10.1015,10.0703,10.0312,10.0312,10.0508,10.1015,10.1406,10.1797,10.2304,10.2304,10.2304,10.2187,10.1797,10.1601,10.1601,10.1094,10.1211,10.1406,9.9687,9.8711,9.8359,9.8359,9.8086,9.7773,9.8203,9.8047,9.7617,9.7226,9.6797,9.6367,9.5937,9.5508,9.5234,9.5664,9.6133,9.6562,9.6992,9.7383,9.7617,9.7187,9.7422,9.7578,9.7187,9.7422,9.7344,9.6094,9.6172,9.5781,9.3633,9.3984,9.3515,9.0469,9.0,9.0156,9.0586,9.1406,9.2109,9.2578,9.375,9.4844,9.5742,9.4258,9.3086,9.2617,9.0547,8.9291,8.9164,8.8186,8.7704,8.7859,8.8097,8.8359,8.8671,8.9094,8.9517,8.994,8.9517,8.8171,0.0,0.0,0.0,0.0,0.0,0.0,0.0,0.0,7.1406,7.2265,7.2734,7.4219,7.8437,8.1562,8.5234,9.0429,9.4609,9.832,10.1406,10.2695,10.3086,10.2383,10.4219,10.5195,10.4492,10.4492,10.4414,10.4219,10.3086,10.2617,10.3086,10.3281,10.3086,10.2383,10.2383,10.1992,10.1289,10.1289,10.1719,10.2383,10.3086,10.3789,10.4414,10.4297,10.4219,10.4219,10.3515,10.3203,10.3086,10.2383,10.2383,10.2695,10.1211,10.0117,9.9492,9.9336,9.8711,9.8086,9.8945,9.8554,9.7734,9.789,9.7851,9.7695,9.7695,9.7695,9.7734,9.789,9.7812,9.7773,9.8125,9.8086,9.7812,9.7344,9.7734,9.8047,9.7383,9.7734,9.7969,9.7148,9.75,9.7461,9.5937,9.6289,9.5351,9.1367,9.0898,9.125,9.1953,9.2812,9.4297,9.6719,9.7734,9.8789,10.0195,9.8242,9.6328,9.4726,9.2656,9.1758,9.2304,9.0259,8.9624,9.0663,9.0744,9.0971,9.1467,9.2091,9.2441,9.2441,9.3633,9.2479,6.6562,6.6523,0.0,6.8047,7.0351,7.3047,0.0,0.0,7.7695,7.8515,7.9922,8.2109,8.5703,8.7226,8.9687,9.4922,9.8086,10.0508,10.25,10.4219,10.5195,10.5117,10.5312,10.5508,10.539,10.539,10.5,10.4297,10.4687,10.4804,10.4101,10.4804,10.5195,10.5117,10.5117,10.5,10.4883,10.4883,10.5,10.5117,10.5195,10.5312,10.5312,10.4609,10.4219,10.4219,10.4101,10.4101,10.3984,10.3906,10.3515,10.2812,10.1797,10.1406,10.1211,10.039,9.9609,9.8984,9.9844,9.9062,9.7812,9.8594,9.832,9.7695,9.7695,9.7695,9.7851,9.8633,9.8281,9.8047,9.9609,9.9414,9.9023,9.9726,9.9922,9.9961,9.9883,9.9961,9.9765,9.8906,9.8789,9.8554,9.7578,9.75,9.664,9.3867,9.4101,9.4648,9.4765,9.5508,9.6758,9.8515,9.9492,10.0117,10.0312,9.9336,9.832,9.7344,9.6992,9.6836,9.6797,9.652,9.6322,9.6278,9.6732,9.6989,9.6985,9.6853,9.6788,9.6788,9.6249,9.4595,6.9765,0.0,0.0,0.0,7.6367,7.8515,8.1289,8.2461,8.3203,8.4062,8.5195,8.6601,8.8594,9.0469,9.2929,0.0,9.8945,10.1406,10.4687,10.5312,10.5898,10.6797,10.7383,10.75,10.6992,10.7383,10.7617,10.7187,10.6992,10.6601,10.5703,10.6015,10.6015,10.5508,10.5508,10.5508,10.5508,10.5508,10.5703,10.6211,10.6211,10.6484,10.6914,10.6093,10.5703,10.5703,10.6211,10.6093,10.5586,10.5117,10.4414,10.3594,10.2695,10.2383,10.2304,10.1406,10.0508,9.9883,10.0781,10.0195,9.9258,9.9648,9.9492,9.9219,9.9219,9.9219,9.9297,9.9648,9.9492,9.9375,10.0117,10.0,9.9844,10.0195,10.0703,10.1094,10.1094,10.1094,10.0898,10.0586,10.0117,9.9648,9.9297,9.9219,9.8672,9.7109,9.6758,9.664,9.664,9.7422,9.8594,10.0312,10.1289,10.1797,10.1797,10.1015,10.039,10.0,9.9023,9.8672,9.9101,9.8164,9.7767,9.8072,9.814,9.807,9.7896,9.8125,9.8019,9.7519,9.7673,9.6903,7.1523,0.0,0.0,7.9258,8.1953,8.4219,8.6992,8.7773,8.8203,8.9101,8.9531,9.0195,9.1523,9.3359,0.0,9.8008,10.0312,10.289,10.6211,10.6406,10.6601,10.75,10.7812,10.789,10.8008,10.8984,10.9609,10.9297,10.8906,10.8281,10.75,10.7617,10.75,10.6914,10.6914,10.6914,10.6914,10.6914,10.7109,10.7383,10.7383,10.7695,10.8281,10.7695,10.7383,10.7383,10.7617,10.7304,10.6601,10.5586,10.4609,10.3789,10.3086,10.289,10.2812,10.2187,10.1406,10.0781,10.1719,10.1211,10.0312,10.0586,10.0508,10.0312,10.0312,10.0312,10.039,10.0586,10.0508,10.039,10.0898,10.0781,10.0703,10.1015,10.1484,10.1992,10.1992,10.1992,10.1992,10.1992,10.1406,10.1015,10.1015,10.1211,10.1015,9.9883,9.9609,9.9219,9.8515,9.9375,10.0703,10.2187,10.2695,10.3008,10.3203,10.2695,10.2304,10.2304,10.1406,10.1094,10.1719,10.0312,9.9724,10.0219,9.963,9.9304,9.919,9.9386,9.921,9.8667,9.9211,9.9135,0.0,0.0,8.0937,8.1953,8.6015,8.9961,9.0937,9.1797,9.2656,9.3515,9.3047,9.3242,9.582,9.6367,9.7265,9.9804,10.3086,10.5703,10.6601,10.7383,10.7617,10.6797,10.5312,10.5312,0.0,10.9609,11.0195,10.9414,11.0117,11.0117,10.9297,11.0,11.0508,11.039,11.039,11.039,11.039,11.039,11.0,10.9218,10.9218,10.9218,10.9297,10.9218,10.9218,10.9101,10.75,10.6719,10.6601,10.4883,10.3711,10.289,10.289,10.289,10.289,10.289,10.2304,10.1719,10.2617,10.1719,10.039,10.1289,10.1015,10.0312,10.0312,10.0312,10.0508,10.1289,10.1015,10.0703,10.2383,10.2187,10.1797,10.2617,10.2812,10.289,10.289,10.289,10.289,10.289,10.2812,10.2812,10.2812,10.3515,10.3515,10.1797,10.289,10.3086,10.0508,10.1719,10.3086,10.3984,10.3398,10.3203,10.4101,10.4101,10.4101,10.4101,10.4883,10.5312,10.5312,10.4492,10.3982,10.389,10.2685,10.2088,10.239,10.1587,10.1285,10.1587,10.1323,10.1212,0.0,0.0,8.375,8.8047,9.1328,9.3984,9.5976,9.6172,9.6054,9.6367,9.3906,9.1992,9.289,9.3047,9.4101,9.7265,10.0703,10.3984,10.7109,10.7812,10.75,10.6093,10.6406,0.0,0.0,0.0,0.0,11.1718,11.2187,11.1914,11.1093,11.1289,11.1211,11.0586,11.0586,11.0586,11.0586,11.0586,11.0508,11.0195,11.0195,11.0195,11.0117,10.9609,10.9297,10.9218,10.75,10.6406,10.5781,10.4687,10.3711,10.289,10.289,10.3281,10.3711,10.3086,10.3086,10.3281,10.3008,10.25,10.2109,10.2383,10.2304,10.1992,10.1992,10.1992,10.2187,10.3086,10.2695,10.2383,10.4219,10.3984,10.3515,10.4414,10.4609,10.4609,10.4609,10.4609,10.4609,10.4609,10.4609,10.4609,10.4609,10.4883,10.4687,10.3515,10.3281,10.3008,10.2109,10.3515,10.4492,10.4219,10.4492,10.4687,10.5,10.5117,10.5117,10.5117,10.5312,10.5508,10.5508,10.5195,10.5,10.4998,10.4411,10.4088,10.4187,10.3618,10.33,10.3398,10.2595,10.2212,0.0,8.4804,8.8047,9.3164,9.5508,9.707,9.9023,9.8789,9.8086,9.7773,9.4531,9.1679,9.1367,9.0781,9.1719,9.582,9.9375,10.3203,10.7812,10.8515,10.7812,10.6093,10.6093,10.5898,0.0,0.0,0.0,11.1992,11.2304,11.2187,11.1914,11.2187,11.2109,11.1484,11.1484,11.1484,11.1484,11.1484,11.1406,11.1093,11.1093,11.0898,11.0586,11.0312,11.0117,10.9687,10.789,10.6914,10.6289,10.5117,10.4297,10.3789,10.3789,10.4219,10.4609,10.3984,10.4219,10.4492,10.3711,10.3203,10.3008,10.3281,10.3398,10.3281,10.3008,10.3281,10.3906,10.4101,10.3984,10.4101,10.5195,10.5117,10.4804,10.539,10.5508,10.5508,10.5508,10.5508,10.5508,10.5508,10.5508,10.5508,10.5508,10.5195,10.5,10.5117,10.4414,10.3711,10.3398,10.4609,10.539,10.5117,10.5312,10.5586,10.5898,10.5898,10.5898,10.5898,10.6211,10.6406,10.6406,10.6093,10.5898,10.5898,10.5409,10.5105,10.5102,10.4595,10.4489,10.4519,10.37,10.3228,8.5586,8.9648,9.3594,9.6992,9.8437,9.9297,10.0117,9.957,9.8633,9.7734,9.4648,9.1875,0.0,0.0,9.0234,9.5508,9.9375,10.3515,10.8515,10.9297,10.8711,0.0,0.0,0.0,0.0,0.0,0.0,11.0312,0.0,11.1015,11.1914,11.2812,11.3203,11.3203,11.3203,11.3203,11.3203,11.3203,11.2812,11.1992,11.1992,11.1484,11.0703,11.1484,11.1406,11.039,10.8711,10.8008,10.7812,10.6211,10.5508,10.5508,10.5508,10.5508,10.5586,10.5508,10.5508,10.539,10.4609,10.3789,10.3203,10.3984,10.4297,10.4101,10.3281,10.4219,10.5312,10.4492,10.4883,10.5508,10.5586,10.5586,10.5586,10.5586,10.5586,10.5586,10.5586,10.5586,10.5586,10.5586,10.5586,10.5586,10.5703,10.5,10.5,10.6719,10.6211,10.5312,10.4414,10.5117,10.5898,10.6601,10.6093,10.5898,10.6719,10.6797,10.6797,10.6797,10.75,10.8008,10.8008,10.7187,10.6797,10.6797,10.5814,10.5399,10.5482,10.4988,10.4891,10.5095,10.4793,10.4215,9.0312,9.3672,9.6172,9.8945,9.9804,10.0,10.0195,9.8672,9.6875,9.6015,9.0039,8.5664,0.0,0.0,0.0,9.3633,9.9609,0.0,10.789,10.9414,0.0,0.0,0.0,10.6797,10.6992,10.6406,0.0,0.0,11.0586,11.1289,11.2812,11.3086,11.3203,11.3203,11.3203,11.3203,11.3203,11.3203,11.3086,11.289,11.289,11.2383,11.1601,11.1797,11.1093,10.9609,10.8515,10.7617,10.6992,10.5898,10.5508,10.5508,10.5508,10.5898,10.6289,10.5703,10.5898,10.6406,10.6093,10.5508,10.4883,10.5117,10.5195,10.5117,10.4883,10.5117,10.5586,10.6015,10.5781,10.5781,10.6992,10.6914,10.6601,10.7187,10.7383,10.7383,10.7383,10.7383,10.7383,10.7383,10.7383,10.7617,10.8203,10.8086,10.8398,10.9414,10.8906,10.7617,10.539,10.6484,10.7187,10.6719,10.7109,10.7383,10.7695,10.7695,10.7695,10.7695,10.789,10.8008,10.8008,10.8398,10.8281,10.7695,10.8007,10.7917,10.7317,10.6997,10.6884,10.6887,10.5999,10.5085,9.4101,9.6836,9.8672,10.0898,10.0898,9.9922,9.8398,9.6054,9.3554,9.1172,8.5586,0.0,0.0,0.0,0.0,0.0,0.0,0.0,10.789,10.9687,11.0195,0.0,10.8789,0.0,10.8008,10.7617,10.8203,0.0,11.0586,11.1211,11.2617,11.3008,11.3203,11.3203,11.3203,11.3203,11.3203,11.2812,11.2617,11.2617,11.2187,11.1601,11.0781,11.0781,11.0,10.8711,10.8203,10.7695,10.7187,10.6797,10.6601,10.6601,10.6601,10.6914,10.7304,10.7617,10.7812,10.789,10.8281,10.789,10.6992,10.6289,10.6015,10.6015,10.5586,10.6015,10.6601,10.6719,10.6719,10.6797,10.7812,10.7617,10.75,10.8398,10.8593,10.8789,10.9492,10.9687,10.9804,11.0195,11.0312,11.039,11.0898,11.0703,11.0586,11.1093,11.0781,10.9883,10.8515,10.8515,10.8203,10.7383,10.8398,10.8789,10.8086,10.8398,10.8398,10.8008,10.8008,10.8008,10.8008,10.8515,10.8515,10.8008,10.8515,10.8511,10.8003,10.8184,10.811,10.7808,10.7488,10.6503,9.7304,9.9258,10.0703,10.2304,10.1289,9.9023,9.5508,9.2656,8.957,8.5273,0.0,0.0,8.2226,0.0,8.3359,9.3008,0.0,10.1094,10.8398,11.0195,11.0781,11.0898,11.0195,10.9414,10.8789,10.8711,10.9297,11.0781,11.0898,11.1289,11.1992,11.2812,11.3281,11.3398,11.3086,11.3203,11.3515,11.2304,11.1797,11.2109,11.1093,11.0117,10.9297,10.9414,10.8906,10.8008,10.8086,10.8086,10.8008,10.8008,10.8008,10.8008,10.8086,10.8203,10.8398,10.9883,11.0,10.9492,11.0117,10.9883,10.9218,10.7383,10.6914,10.6719,10.6015,10.6914,10.8008,10.7304,10.7695,10.8281,10.8281,10.8281,10.8593,10.9414,10.9609,11.0117,11.1718,11.2187,11.25,11.3398,11.3515,11.3593,11.3711,11.3086,11.2617,11.2617,11.2383,11.2187,11.2187,11.0781,10.9492,10.8593,10.9883,11.0117,10.8281,10.8984,10.9101,10.8203,10.8281,10.8281,10.8281,10.8515,10.8515,10.8281,10.8515,10.8513,10.8304,10.9096,10.9113,10.8293,10.9113,10.8215,10.0195,10.0586,10.0508,10.1601,9.9961,9.707,9.2929,9.0,0.0,0.0,0.0,7.8164,8.3476,8.3594,0.0,9.6445,0.0,0.0,0.0,0.0,11.1914,0.0,0.0,0.0,0.0,0.0,0.0,0.0,0.0,11.2812,11.3008,11.3086,11.3515,11.4297,11.289,11.3086,11.5195,11.2304,11.1484,11.3008,11.1406,11.0117,10.9297,11.0,10.9492,10.8008,10.8789,0.0,10.8008,10.8008,10.8008,10.8086,10.8789,10.9101,10.9101,10.9414,10.9883,11.0195,10.8906,10.9297,11.0117,10.8281,10.7812,10.7695,10.7617,10.8281,10.8984,10.8906,10.9492,11.0117,11.0117,11.0117,11.039,11.1211,11.1406,11.1718,11.2812,11.3515,11.4297,11.5195,11.5312,11.5586,11.6211,11.6211,11.6093,11.6093,11.4883,11.3984,11.3984,11.3203,11.2187,11.1289,11.1484,11.1015,10.9218,10.9883,11.0,10.9101,10.9804,11.0117,11.0117,11.0781,11.0898,11.0195,11.0898,11.0896,11.01,11.03,11.0284,11.0089,11.0206,10.9699,10.2383,10.3008,10.3008,10.3008,10.0586,9.6797,9.0703,0.0,0.0,0.0,0.0,7.5859,8.0117,0.0,0.0,0.0,0.0,0.0,0.0,0.0,0.0,0.0,0.0,0.0,0.0,0.0,0.0,0.0,0.0,11.4414,11.3906,11.4297,11.4687,11.5195,11.4297,11.3984,11.4414,11.2812,11.1914,11.1797,11.0508,11.0195,11.0703,11.0586,11.0117,10.9414,11.0312,10.9609,10.8086,10.8984,10.9101,10.8711,10.9101,10.9609,11.0,11.0508,11.0898,11.1211,11.0781,11.1015,11.1093,10.9804,10.9414,10.9414,10.9414,10.9609,11.0,11.0,11.0312,11.0586,11.0586,11.0586,11.0781,11.1718,11.289,11.4101,11.5,11.6211,11.7109,11.7109,11.7812,11.8593,11.8984,11.8711,11.8398,11.8398,11.7695,11.7187,11.7187,11.7187,11.5781,11.2304,11.2695,11.2383,11.0195,11.0781,11.0898,11.0,11.039,11.0586,11.0586,11.1015,11.1015,11.0586,11.1015,11.1015,11.0581,11.1094,11.0987,11.0596,11.0987,11.0518,10.3594,10.4687,10.5,10.4101,10.1406,9.6914,8.9023,8.4961,0.0,0.0,0.0,0.0,0.0,0.0,0.0,0.0,0.0,0.0,0.0,0.0,0.0,0.0,0.0,0.0,0.0,0.0,0.0,0.0,0.0,0.0,11.5117,11.5586,11.6015,11.6093,11.5703,11.5,11.3984,11.3515,11.2617,11.1406,11.0586,11.0898,11.2187,11.1484,11.1093,11.0898,11.1797,11.0898,10.8906,11.0312,11.0508,10.9883,10.9883,11.0312,11.1015,11.1601,11.1992,11.2187,11.25,11.2383,11.1992,11.1211,11.0781,11.0586,11.0586,11.0703,11.0898,11.0898,11.1015,11.1211,11.1601,11.1718,11.1992,11.3281,11.5117,11.6797,11.7617,11.8789,11.9492,11.9218,12.0195,12.1211,12.1406,12.0898,12.0312,11.9883,11.9883,11.9804,11.9609,12.0,11.8593,11.3984,11.4414,11.4101,11.1601,11.1914,11.1797,11.0898,11.1211,11.1406,11.1406,11.1406,11.1406,11.1406,11.1289,11.1211,11.1211,11.2004,11.2018,11.1198,11.24,11.1885,10.3086,10.4297,10.4101,10.3203,10.1015,9.6758,8.8242,0.0,0.0,0.0,7.3867,7.5508,7.8867,0.0,0.0,0.0,0.0,0.0,0.0,0.0,0.0,0.0,0.0,0.0,0.0,0.0,0.0,0.0,0.0,0.0,11.6797,11.6797,11.6914,11.6914,11.539,11.5312,11.6601,11.4414,11.3515,11.4101,11.3281,11.289,11.3086,11.3008,11.25,11.1797,11.2695,11.25,0.0,11.1718,11.1718,11.1718,11.1718,11.1718,11.1797,11.1914,11.2383,11.289,11.1406,11.1797,11.289,11.2109,11.1211,11.0586,11.0586,11.1211,11.1797,11.1797,11.2383,11.3281,11.4804,11.5195,11.5898,11.8281,11.9101,11.9492,12.039,12.0,12.0,12.1484,12.1992,12.2304,12.3086,12.3203,12.2617,12.1015,12.0781,12.0508,11.9687,11.8984,11.8593,11.8906,11.7617,11.6093,11.4297,11.3515,11.2695,11.1797,11.3281,11.4101,11.4101,11.4101,11.4101,11.4101,11.3398,11.3008,11.3008,11.3818,11.3689,11.2908,11.5415,11.5203,10.3789,10.6093,10.6797,10.4883,10.3281,9.9609,8.9922,0.0,0.0,7.5703,7.4765,7.5781,7.7148,7.7851,0.0,0.0,0.0,0.0,0.0,0.0,0.0,0.0,0.0,0.0,0.0,0.0,0.0,0.0,0.0,0.0,11.8593,11.8593,11.8281,11.7812,11.7109,11.6601,11.6289,11.5781,11.5195,11.4492,11.4101,11.4218,11.4687,11.4218,11.3515,11.2812,11.4101,11.3593,0.0,11.3593,11.3593,11.2695,11.2695,11.2695,11.2617,11.2109,11.3086,11.4609,11.3906,11.4218,11.4804,11.4883,11.4101,11.2812,11.2304,11.2383,11.2812,11.3281,11.3711,11.4414,11.6015,11.6914,11.7812,11.9883,12.0,11.9804,12.0703,12.1015,12.1211,12.1406,12.2695,12.3906,12.4218,12.4687,12.4609,12.3398,12.3203,12.3086,12.2812,12.1992,12.1797,12.2617,11.9804,11.75,11.6797,11.6015,11.5312,11.5,11.5586,11.5586,11.4492,11.5508,11.5508,11.4492,11.4609,11.4687,11.4687,11.5602,11.55,11.4719,11.6288,11.6203,10.3594,10.6797,10.8086,10.6289,10.4219,10.0312,0.0,0.0,8.3437,7.6445,7.5664,7.6289,7.6289,7.6797,7.7187,0.0,0.0,8.1679,0.0,0.0,0.0,0.0,0.0,0.0,0.0,0.0,0.0,0.0,0.0,0.0,12.0781,12.0508,11.9687,11.8281,11.8281,11.7617,11.6211,11.6992,11.6718,11.5195,11.5508,11.5898,11.6406,11.5586,11.4883,11.4414,11.5586,11.5117,0.0,11.5117,11.5,11.3906,11.3398,11.3203,11.3086,11.25,11.3711,11.5703,11.5703,11.6093,11.6601,11.7187,11.6601,11.5508,11.4609,11.4101,11.4101,11.4687,11.539,11.6289,11.75,11.8789,12.0117,12.1406,12.1015,12.0508,12.1211,12.1797,12.2109,12.1718,12.3398,12.4883,12.5117,12.5586,12.5703,12.4883,12.5,12.5117,12.4804,12.4297,12.4101,12.4687,12.2109,11.9883,11.9101,11.8008,11.7383,11.7383,11.7617,11.7187,11.6093,11.6914,11.6797,11.5586,11.5703,11.5703,11.5703,11.6584,11.66,11.5688,11.7081,11.7388,10.1914,10.539,10.6719,10.6719,10.2812,9.7461,0.0,8.6679,8.2148,7.6953,7.6562,7.7187,7.7187,7.7187,7.7187,7.7187,0.0,0.0,0.0,0.0,0.0,0.0,0.0,0.0,0.0,0.0,0.0,0.0,0.0,0.0,12.3515,12.2617,12.1015,11.8398,11.8281,11.789,11.6992,11.789,11.7812,11.6992,11.7812,11.8281,11.8203,11.7383,11.6992,11.6992,11.6992,11.6992,0.0,11.6093,11.5703,11.5508,11.3789,11.3203,11.3203,11.3203,11.4297,11.5703,11.5703,11.6797,11.8281,11.8281,11.8281,11.8086,11.7187,11.6406,11.5703,11.5781,11.7617,11.9609,11.9609,12.1484,12.3515,12.3515,12.2812,12.2187,12.2187,12.2187,12.25,12.3281,12.4218,12.5117,12.5898,12.6015,12.5703,12.4883,12.5508,12.5703,12.4883,12.4804,12.4804,12.4804,12.4804,12.3711,12.1093,11.9297,11.8281,11.8281,11.9101,11.9609,11.9492,11.8711,11.8281,11.8281,11.6601,11.5703,11.5703,11.6601,11.6599,11.5802,11.8419,11.9614,9.3125,9.6172,9.7656,9.6484,9.5859,9.3789,8.7148,8.5039,8.3008,7.7851,7.6992,7.7187,7.7187,7.7187,7.7969,8.0312,8.1836,0.0,0.0,0.0,0.0,0.0,0.0,0.0,0.0,0.0,0.0,0.0,0.0,0.0,12.0898,12.1718,12.1289,11.9297,11.8593,11.8203,11.789,11.8203,11.8203,11.789,11.8203,11.8008,11.7383,11.7109,11.6718,11.6093,11.6718,11.7304,11.789,11.7617,11.7109,11.6601,11.6718,11.6015,11.5117,11.6289,11.7812,11.9297,11.9297,11.9609,12.0195,12.0781,12.0195,11.9218,11.9609,11.8203,11.6718,11.7304,11.8906,12.0586,12.1211,12.2383,12.3515,12.3515,12.3711,12.3984,12.3984,12.4414,12.4883,12.5195,12.5898,12.6601,12.6797,12.7383,12.75,12.6601,12.6718,12.6797,12.6484,12.6015,12.5781,12.6406,12.6015,12.5117,12.3711,12.25,12.2109,12.2695,12.2383,12.1992,12.1406,12.1093,12.039,11.9218,11.8086,11.75,11.75,11.8398,11.8593,11.8396,11.8591,11.8704,0.0,9.1914,9.3242,9.2461,9.1875,9.0195,8.5234,8.3242,8.1484,7.793,7.7187,7.7187,7.7187,7.7187,7.789,8.0039,0.0,0.0,0.0,0.0,0.0,0.0,0.0,0.0,0.0,0.0,0.0,0.0,0.0,0.0,12.1718,12.2304,12.1914,12.0117,11.8906,11.8281,11.8281,11.8281,11.8281,11.8281,11.8281,11.8008,11.75,11.7109,11.7109,11.7187,11.7383,11.8008,0.0,11.8789,11.8281,11.75,11.8086,11.7695,11.6914,11.789,11.9414,12.0898,12.0898,12.1289,12.1992,12.25,12.1992,12.1211,12.2109,12.0781,11.8984,11.9218,12.0781,12.2383,12.2617,12.3593,12.4414,12.4414,12.4883,12.5312,12.5312,12.5898,12.6484,12.6484,12.7187,12.8008,12.8711,12.9218,12.9414,12.8906,12.8789,12.8515,12.789,12.7304,12.7109,12.7304,12.7109,12.6601,12.5781,12.4883,12.4687,12.5195,12.4687,12.4218,12.3711,12.3008,12.2187,12.1093,12.0195,11.9804,11.9804,12.0312,12.0586,12.0586,11.9687,11.91,0.0,9.0937,9.1719,9.25,8.9765,8.6406,8.4726,8.1328,0.0,7.7383,7.7187,7.7187,7.7187,7.7187,7.7265,7.7539,0.0,0.0,0.0,0.0,0.0,0.0,0.0,0.0,0.0,0.0,0.0,0.0,0.0,12.5508,12.4492,12.3711,12.25,12.0781,11.9101,11.8281,11.8281,11.8281,11.8281,11.8281,11.8281,11.8281,11.8281,11.75,11.8086,0.0,11.8789,11.8984,11.9804,11.9687,11.9218,11.8515,11.8593,11.8515,11.8515,11.8593,11.9687,12.1093,12.1093,12.2109,12.3515,12.3593,12.3593,12.3789,12.4687,12.3711,12.2109,12.1406,12.289,12.4609,12.3906,12.4804,12.6015,12.6015,12.6015,12.6093,12.6093,12.6797,12.7383,12.7383,12.8008,12.9218,13.0898,13.1211,13.1211,13.1406,13.1289,13.0703,12.9101,12.8789,12.8398,12.7617,12.8203,12.8281,12.75,12.6601,12.6093,12.6211,12.6093,12.6093,12.6211,12.4609,12.3711,12.3711,12.2812,12.2304,12.2304,12.2304,12.2304,12.2187,12.1406,12.0586,8.0703,0.0,8.0859,8.1054,8.0859,8.0312,0.0,7.875,0.0,0.0,0.0,0.0,0.0,0.0,0.0,0.0,0.0,0.0,0.0,0.0,0.0,0.0,0.0,0.0,0.0,0.0,0.0,0.0,0.0,12.3789,12.1015,12.1289,12.0703,11.8984,11.8515,11.8281,11.8281,11.8281,11.8281,11.8281,11.8281,11.8281,11.8281,11.8789,11.9218,11.9609,12.0117,12.0781,12.1484,12.0898,12.0508,12.039,12.1015,12.0898,12.0508,12.1797,12.25,12.289,12.289,12.3203,12.3711,12.5,12.5,12.4804,12.6289,12.5117,12.3281,12.3789,12.4297,12.4883,12.5312,12.5703,12.6015,12.6015,12.6484,12.6992,12.6992,12.7695,12.8281,12.8281,12.8515,12.9218,13.0898,13.1211,13.1718,13.3008,13.2617,13.1992,13.1601,13.039,12.9492,12.9297,12.8906,12.8789,12.9218,12.789,12.7304,12.789,12.7383,12.7304,12.8008,12.6289,12.539,12.539,12.3984,12.3203,12.3203,12.3203,12.289,12.2187,12.2695,12.2109,7.7773,7.8125,7.8359,7.8359,7.8711,7.8828,7.8008,0.0,0.0,0.0,0.0,0.0,0.0,0.0,0.0,0.0,0.0,0.0,0.0,0.0,0.0,0.0,0.0,0.0,0.0,0.0,0.0,0.0,0.0,12.2617,12.0312,12.1406,12.1484,12.0117,12.0117,11.9492,11.8281,11.8281,11.8515,11.8906,11.8906,11.9101,11.9492,12.0,12.039,12.0781,12.1289,12.1797,12.2187,12.2109,12.1914,12.1601,12.25,12.25,12.2187,12.3203,12.3515,12.3515,12.3515,12.3789,12.4218,12.5195,12.5703,12.6093,12.6992,12.6601,12.5781,12.539,12.5898,12.6601,12.6601,12.6914,12.7187,12.7187,12.7617,12.789,12.789,12.8593,12.9297,12.9687,12.9804,13.0508,13.2617,13.289,13.3086,13.3711,13.3711,13.3203,13.2109,13.1093,13.0508,13.0508,13.0117,13.0,13.0508,12.9609,12.9297,12.9804,12.8984,12.8711,12.9218,12.75,12.6601,12.6601,12.5703,12.539,12.5781,12.539,12.5,12.4492,12.4218,12.3398,7.75,7.8711,7.9844,7.957,7.9531,7.9336,7.8672,0.0,0.0,0.0,0.0,0.0,0.0,0.0,0.0,0.0,0.0,0.0,0.0,0.0,0.0,0.0,0.0,0.0,0.0,0.0,0.0,0.0,12.1914,12.1601,12.0703,12.2187,12.2812,12.1992,12.2109,12.1093,11.8711,11.8398,11.8789,11.9804,11.9687,12.0117,12.0898,12.1015,12.1484,12.2187,12.2304,12.2304,12.2304,12.3008,12.289,12.2304,12.3203,12.3515,12.3515,12.3593,12.3593,12.3515,12.3711,12.4297,12.5,12.5312,12.6289,12.7304,12.7617,12.8281,12.8711,12.6992,12.7617,12.8398,12.7695,12.8086,12.8789,12.8593,12.8711,12.8711,12.8515,12.9101,12.9883,13.0703,13.0898,13.1797,13.4414,13.4804,13.4687,13.4218,13.4609,13.4218,13.2109,13.1601,13.1406,13.1406,13.1289,13.1289,13.1406,13.1406,13.1484,13.1797,13.0703,13.0117,13.0117,12.8593,12.7695,12.7695,12.7617,12.789,12.8593,12.8008,12.7617,12.7304,12.6015,12.4804,7.8945,8.0039,8.0469,7.9023,7.8672,7.8633,0.0,0.0,0.0,0.0,0.0,0.0,0.0,0.0,0.0,0.0,0.0,0.0,0.0,0.0,0.0,0.0,0.0,0.0,0.0,0.0,0.0,12.0195,12.0703,12.0703,11.9804,12.0781,12.1211,12.1093,12.1797,12.1718,12.0508,11.8984,11.9101,12.0703,12.0,12.0117,12.0898,12.1718,12.2109,12.2187,0.0,12.289,12.2187,12.2304,12.2304,12.2304,12.3203,12.3515,12.3593,12.4297,12.4101,12.3593,12.4297,12.5117,12.6093,12.75,12.7695,12.7617,12.9101,13.0117,13.0586,12.9609,12.8984,12.8593,12.8398,12.8984,12.9492,12.8789,12.9218,12.9297,12.7812,12.8203,12.8789,12.8984,12.9609,13.0898,13.3515,13.3984,13.4414,13.5703,13.539,13.4883,13.4492,13.3203,13.2304,13.2304,13.1601,13.1484,13.2187,13.2304,13.289,13.4297,13.2304,13.1015,13.1015,13.0,12.9492,12.9492,12.8789,12.8515,12.8593,12.9218,12.8711,12.7304,12.7812,12.6797,7.9258,7.9687,8.0351,8.3281,8.2265,8.0429,0.0,0.0,0.0,0.0,0.0,0.0,0.0,0.0,0.0,0.0,0.0,0.0,0.0,0.0,0.0,0.0,0.0,0.0,0.0,0.0,0.0,11.9804,12.0,12.0,11.9609,12.1289,12.2304,12.2304,12.2695,12.289,12.3008,12.0781,12.0312,12.1601,12.1211,12.1484,12.2304,12.2695,12.289,12.289,12.2812,12.2812,12.289,12.2383,12.25,12.289,12.2812,12.2812,12.289,12.3789,12.4101,12.4297,12.5195,12.6015,12.6797,12.7109,12.7617,12.8086,12.8398,12.9414,13.039,13.0,13.0312,13.0586,13.0117,13.0703,13.1093,13.0195,13.0703,13.0781,12.9101,12.9804,13.0703,13.0703,13.1406,13.25,13.4218,13.4414,13.4609,13.4883,13.5,13.4804,13.4414,13.3711,13.3203,13.3203,13.3203,13.3398,13.3789,13.4297,13.4297,13.3711,13.3008,13.2187,13.1211,13.0781,13.0586,13.0586,13.0195,13.0,13.0,13.039,13.0195,12.9414,12.8398,12.7304,7.9531,7.9414,8.0312,0.0,0.0,0.0,0.0,0.0,0.0,0.0,0.0,0.0,0.0,0.0,0.0,0.0,0.0,0.0,0.0,0.0,0.0,0.0,0.0,0.0,0.0,12.2187,12.1914,12.0312,12.0,12.0,12.0195,12.2109,12.3281,12.3515,12.3711,12.3984,12.4492,12.2695,12.1992,12.25,12.2304,12.2695,12.3515,12.3515,12.3515,12.3515,12.2812,12.2812,12.3086,12.2304,12.2383,12.3086,12.25,12.2617,12.3086,12.3593,12.4609,12.5703,12.6211,12.6992,12.7812,12.6914,12.75,12.8515,12.8008,12.9101,13.0508,13.0508,13.1797,13.2812,13.1797,13.2187,13.2617,13.1718,13.2187,13.2304,13.0312,13.1093,13.2187,13.2187,13.289,13.3789,13.4609,13.4687,13.4492,13.3906,13.4297,13.4609,13.4101,13.4101,13.4218,13.4414,13.4883,13.5312,13.5312,13.6093,13.5586,13.3203,13.3906,13.3593,13.1914,13.1797,13.1718,13.1484,13.1289,13.1211,13.1211,13.1406,13.1406,13.1093,12.8906,12.7695,8.0469,8.0273,8.0898,0.0,0.0,0.0,0.0,0.0,0.0,0.0,0.0,0.0,0.0,0.0,0.0,0.0,0.0,0.0,0.0,0.0,0.0,0.0,0.0,0.0,0.0,12.3789,12.3008,12.2109,12.1289,12.1211,12.1992,12.2187,12.2695,12.3515,12.4297,12.4297,12.3593,12.4218,12.4101,12.3398,12.2617,12.2695,12.3515,12.3515,12.3515,12.3515,12.3398,12.3008,12.2187,12.1406,12.1484,12.2304,12.2187,12.3593,12.5586,12.5,12.6211,12.8203,12.75,12.8281,12.9609,12.8711,12.8515,12.8711,12.9492,13.0898,13.2304,13.2304,13.3515,13.4414,13.2812,13.3086,13.3515,13.2617,13.3086,13.3008,13.0508,13.0586,13.1289,13.1289,13.1992,13.289,13.3711,13.3906,13.3906,13.3789,13.3789,13.4101,13.4804,13.4883,13.5195,13.6015,13.6211,13.6211,13.6211,13.6992,13.6718,13.4883,13.5586,13.539,13.3711,13.3593,13.3203,13.2383,13.1601,13.1211,13.1211,13.1992,13.1992,13.1211,13.0195,12.8789,8.0547,8.0,0.0,0.0,0.0,0.0,0.0,0.0,0.0,0.0,0.0,0.0,0.0,0.0,0.0,0.0,0.0,0.0,0.0,0.0,0.0,0.0,0.0,0.0,12.3906,12.3203,12.2617,12.2187,12.1914,12.1914,12.2187,12.2695,12.3203,12.3515,12.3789,12.3789,12.3515,12.3789,12.3789,12.3515,12.3203,12.3203,12.3515,12.3515,12.3515,12.3515,12.289,12.2812,12.289,12.2109,12.2187,12.3008,12.3008,12.3906,12.5312,12.5508,12.6484,12.7812,12.8008,12.8906,12.9804,12.8906,12.9297,13.0195,13.0,13.1093,13.25,13.25,13.3281,13.4218,13.4101,13.4687,13.5117,13.4297,13.4687,13.4609,13.2109,13.2187,13.2812,13.2812,13.3515,13.4297,13.5195,13.539,13.5508,13.6093,13.6211,13.6484,13.7304,13.7382,13.7617,13.789,13.7382,13.7109,13.7109,13.789,13.7382,13.5117,13.6289,13.6289,13.4609,13.4492,13.4414,13.4101,13.3203,13.2812,13.2812,13.3086,13.3086,13.2812,13.0781,12.9492,8.0195,7.9375,0.0,0.0,0.0,0.0,0.0,0.0,0.0,0.0,0.0,0.0,0.0,0.0,0.0,0.0,0.0,0.0,0.0,0.0,0.0,0.0,0.0,12.1597,12.3281,12.3008,12.2617,12.2617,12.2617,12.2617,12.2617,12.289,12.3203,12.3515,12.3515,12.3515,12.3515,12.3789,12.3789,12.3515,12.3515,12.3593,12.3906,12.3593,12.3711,12.3906,12.3008,12.289,12.3398,12.2617,12.2617,12.3086,12.3711,12.4414,12.5312,12.6093,12.7109,12.8203,12.8515,12.9492,13.0508,12.9414,13.0195,13.1484,13.0898,13.1601,13.2617,13.3086,13.3515,13.3984,13.5117,13.5586,13.5703,13.5117,13.5508,13.5312,13.3281,13.3398,13.3789,13.3789,13.4414,13.5312,13.6093,13.6484,13.6992,13.789,13.8007,13.8281,13.9218,13.9297,13.9218,13.8906,13.8906,13.8593,13.8086,13.9101,13.8789,13.6797,13.75,13.6992,13.4687,13.4883,13.4883,13.4609,13.4101,13.3789,13.3789,13.3789,13.3789,13.3789,13.1718,13.0586,7.9453,0.0,0.0,0.0,0.0,0.0,0.0,0.0,0.0,0.0,0.0,0.0,0.0,0.0,0.0,0.0,0.0,0.0,0.0,0.0,11.9881,12.0781,12.0914,12.1605,12.3281,12.3515,12.3515,12.3515,12.3515,12.3515,12.3515,12.2695,12.2617,12.3515,12.3515,12.3515,12.3515,12.4414,12.4414,12.3515,12.3515,12.3984,12.4804,12.3906,12.3984,12.4804,12.3906,12.3515,12.3398,12.2617,12.2187,12.2383,12.4101,12.5312,12.6093,12.6992,12.8398,12.9804,12.8906,13.0312,13.2187,13.0508,13.1093,13.25,13.25,13.25,13.289,13.4492,13.4414,13.4218,13.5781,13.5586,13.5,13.5,13.5,13.4804,13.3984,13.3789,13.3789,13.3789,13.4492,13.5312,13.6211,13.6992,13.789,13.8789,13.8906,13.9297,14.0117,14.0195,13.9882,13.8984,14.0507,14.0781,13.9101,14.0507,14.1093,14.0195,13.9414,13.7382,13.3984,13.4609,13.4609,13.3789,13.3789,13.3789,13.3789,13.3789,13.3789,13.3789,13.289,13.1992,0.0,0.0,0.0,0.0,0.0,0.0,0.0,0.0,0.0,0.0,0.0,0.0,0.0,0.0,0.0,0.0,0.0,0.0,0.0,11.9092,11.9893,12.0785,12.1392,12.2302,12.3398,12.3515,12.3515,12.3515,12.3515,12.3515,12.3515,12.3281,12.3203,12.3515,12.3515,12.3515,12.3515,12.3789,12.3789,12.3515,12.3515,12.3984,12.4804,12.3906,12.3984,12.4804,12.3906,12.3515,12.3515,12.3203,12.3515,12.4101,12.5195,12.6211,12.7109,12.8593,12.9492,12.9883,12.9609,13.0781,13.2304,13.1211,13.2383,13.4218,13.3593,13.3789,13.4218,13.4218,13.3984,13.3906,13.4414,13.4297,13.4297,13.4883,13.5,13.4804,13.3984,13.4218,13.4609,13.4609,13.5781,13.7109,13.8007,13.8906,13.9882,14.1406,14.1601,14.1914,14.2812,14.289,14.2617,14.1718,14.1601,14.1015,13.9882,14.0898,14.0898,13.9414,13.8984,13.8203,13.6484,13.5508,13.4883,13.4609,13.4101,13.3789,13.3789,13.3789,13.3789,13.3789,13.289,13.2383,0.0,0.0,0.0,0.0,0.0,0.0,0.0,0.0,0.0,0.0,0.0,0.0,0.0,0.0,0.0,0.0,0.0,0.0,0.0,11.9288,11.9881,12.081,12.1711,12.25,12.3398,12.3515,12.3515,12.3515,12.3515,12.3515,12.3515,12.3515,12.3515,12.3515,12.3515,12.3515,12.3515,12.3515,12.3515,12.3515,12.3515,12.3984,12.4804,12.3906,12.3984,12.4804,12.3906,12.3515,12.3515,12.3515,12.3984,12.4883,12.5703,12.6484,12.75,12.9297,12.9883,12.9883,12.9883,13.1289,13.289,13.1992,13.3203,13.5,13.4804,13.4883,13.5,13.4804,13.4492,13.4297,13.4297,13.3984,13.3906,13.4414,13.4492,13.4414,13.3906,13.4218,13.4687,13.539,13.6601,13.8086,13.9687,14.0703,14.1718,14.3086,14.3281,14.3515,14.3906,14.3984,14.3593,14.2382,14.2382,14.1992,14.0781,14.1797,14.1992,14.1015,14.0,13.9297,13.9218,13.6211,13.4804,13.5508,13.4414,13.4101,13.4804,13.4101,13.3789,13.3789,13.3281,13.3008,0.0,0.0,0.0,0.0,0.0,0.0,0.0,0.0,0.0,0.0,0.0,0.0,0.0,0.0,0.0,0.0,0.0,0.0,0.0,11.981,12.0217,12.0908,12.1789,12.2617,12.3281,12.3515,12.3593,12.3593,12.3593,12.3593,12.3593,12.3515,12.3515,12.3515,12.3515,12.3515,12.3515,12.3515,12.3515,12.3515,12.3398,12.3789,12.4492,12.3789,12.3906,12.4609,12.3789,12.3515,12.3515,12.3593,12.4101,12.4883,12.5781,12.6601,12.75,12.9297,13.0,13.0,13.0117,13.1797,13.3789,13.3008,13.3906,13.539,13.6211,13.5781,13.5312,13.6093,13.5586,13.4883,13.5117,13.4609,13.3984,13.4101,13.3984,13.3906,13.3906,13.3984,13.4609,13.6093,13.7187,13.8593,14.1093,14.2187,14.3086,14.3906,14.3984,14.3984,14.3984,14.3984,14.3398,14.1992,14.3086,14.3398,14.1992,14.3203,14.3984,14.3984,14.1718,14.0703,14.1484,13.6797,13.4883,13.6484,13.4883,13.4804,13.6289,13.4609,13.3789,13.3789,13.3789,13.3789,0.0,0.0,0.0,0.0,0.0,0.0,0.0,0.0,0.0,0.0,0.0,0.0,0.0,0.0,0.0,0.0,0.0,11.9896,11.9607,12.131,12.2395,12.1888,12.2607,12.3218,12.3398,12.3984,12.4492,12.4492,12.4492,12.4492,12.4492,12.3906,12.3515,12.3515,12.3515,12.3515,12.3515,12.3515,12.3515,12.3515,12.2812,12.2617,12.2812,12.3281,12.3593,12.3789,12.3593,12.3515,12.3593,12.4218,12.4609,12.4883,12.6406,12.7109,12.7617,13.0,13.0898,13.1015,13.1718,13.3203,13.4687,13.4492,13.5586,13.7109,13.7304,13.6718,13.6093,13.6211,13.5195,13.4414,13.5703,13.5898,13.5898,13.6601,13.5703,13.4687,13.4687,13.5781,13.6914,13.7304,13.8593,14.0,14.1289,14.2187,14.3086,14.3906,14.3984,14.3984,14.3984,14.3984,14.4101,14.4414,14.4218,14.4101,14.4492,14.4218,14.3984,14.3984,14.2304,14.1289,14.1484,13.8515,13.7304,13.8281,13.6601,13.5898,13.6289,13.4609,13.3789,13.3789,13.3789,13.3789,0.0,0.0,0.0,0.0,0.0,0.0,0.0,0.0,0.0,0.0,0.0,0.0,0.0,0.0,0.0,11.9201,12.0088,12.0688,11.9893,12.1208,12.2221,12.1889,12.2707,12.3302,12.3418,12.4216,12.4492,12.4218,12.4492,12.4609,12.4218,12.3711,12.3515,12.3515,12.3086,12.3086,12.3515,12.3086,12.289,12.289,12.2383,12.2383,12.2812,12.289,12.3281,12.4101,12.4101,12.4297,12.4687,12.5195,12.5586,12.6093,12.6992,12.7617,12.8203,13.039,13.1211,13.1289,13.2187,13.3593,13.5,13.5,13.5586,13.6484,13.7304,13.6718,13.5703,13.5703,13.5,13.4687,13.6015,13.6289,13.6601,13.789,13.75,13.6914,13.6914,13.7617,13.8515,13.9297,14.0195,14.1211,14.25,14.3086,14.3515,14.3906,14.3984,14.3984,14.3984,14.3984,14.4218,14.4609,14.4297,14.4218,14.4609,14.4297,14.3984,14.3984,14.2812,14.2109,14.2109,14.039,13.9297,13.8906,13.6797,13.5898,13.6289,13.4609,13.3789,13.3789,13.3789,13.3789,0.0,0.0,0.0,0.0,0.0,0.0,0.0,0.0,0.0,0.0,0.0,0.0,0.0,0.0,12.2088,12.1273,12.13,12.1115,12.0224,12.1022,12.1703,12.1789,12.2482,12.3008,12.3284,12.4317,12.4608,12.3906,12.4609,12.4687,12.3984,12.3711,12.3398,12.3281,12.2617,12.25,12.3008,12.2304,12.1992,12.1992,12.1992,12.2383,12.3008,12.2617,12.3398,12.5,12.5,12.539,12.6015,12.6211,12.6718,12.75,12.75,12.8086,12.8984,13.039,13.1211,13.1484,13.2383,13.3906,13.539,13.539,13.539,13.5703,13.7187,13.6406,13.5,13.5195,13.5,13.5,13.6015,13.6484,13.7187,13.8711,13.9492,13.9687,13.9218,13.9218,13.9804,14.1406,14.1797,14.2382,14.3789,14.3984,14.3984,14.3984,14.3984,14.3984,14.3984,14.3984,14.3984,14.3984,14.3906,14.3789,14.3984,14.3711,14.3593,14.3789,14.3007,14.2617,14.2617,14.1718,14.0507,13.8906,13.6601,13.5703,13.6289,13.4609,13.3789,13.3789,13.3789,13.3789,0.0,0.0,0.0,0.0,0.0,0.0,0.0,0.0,0.0,0.0,0.0,0.0,0.0,12.2088,12.0588,12.1091,12.179,12.2012,12.1091,12.2383,12.3227,12.2505,12.2493,12.2706,12.2991,12.4503,12.5517,12.5585,12.5781,12.5781,12.5703,12.4297,12.3203,12.2383,12.2304,12.1914,12.1289,12.1093,12.1093,12.1093,12.1093,12.1093,12.1289,12.2695,12.4218,12.5781,12.5781,12.5898,12.6093,12.6797,12.7617,12.8398,12.8398,12.8984,12.9804,13.0,13.1015,13.25,13.3281,13.5195,13.7304,13.7304,13.7304,13.7304,13.75,13.6406,13.5195,13.5898,13.5117,13.4297,13.5898,13.7382,13.8789,13.9804,14.1718,14.2695,14.0507,14.0586,14.1406,14.2382,14.3203,14.3711,14.3984,14.3984,14.3984,14.3984,14.3984,14.3984,14.3984,14.3984,14.3984,14.3984,14.3398,14.3203,14.3906,14.2695,14.2187,14.289,14.2187,14.1718,14.1718,14.0781,13.9882,13.8906,13.7812,13.6914,13.6289,13.4609,13.3789,13.3789,13.3789,13.3789,0.0,0.0,0.0,0.0,0.0,0.0,0.0,0.0,0.0,0.0,0.0,12.2414,12.3693,12.2807,12.1897,12.1709,12.231,12.2198,12.0884,12.1773,12.2468,12.2179,12.2213,12.2577,12.3613,12.4814,12.5691,12.6008,12.6014,12.5781,12.539,12.4218,12.3281,12.289,12.1992,12.1484,12.1601,12.0703,12.0195,12.0195,11.9687,12.0508,12.2383,12.3203,12.4414,12.6015,12.6484,12.6992,12.75,12.789,12.8281,12.8593,12.8593,12.8789,12.9218,12.9687,13.0703,13.1914,13.2812,13.4414,13.6093,13.6093,13.6093,13.6093,13.6093,13.5312,13.4414,13.4804,13.4414,13.4218,13.5898,13.7187,13.8593,14.0507,14.2187,14.3086,14.25,14.2617,14.3007,14.3398,14.3789,14.3984,14.3984,14.3984,14.3984,14.3984,14.3984,14.3984,14.3984,14.3984,14.3984,14.3984,14.3281,14.289,14.3281,14.2187,14.1718,14.1992,14.1718,14.1289,14.0781,14.039,13.9297,13.75,13.7109,13.6406,13.5586,13.4414,13.3789,13.3789,13.3789,13.3789,0.0,0.0,0.0,0.0,0.0,0.0,0.0,0.0,0.0,0.0,12.0474,12.1301,12.289,12.3087,12.2817,12.243,12.2598,12.2408,12.0793,12.1408,12.1892,12.1887,12.1888,12.2384,12.3814,12.4789,12.5606,12.6213,12.6089,12.5703,12.5117,12.4101,12.3398,12.3203,12.1914,12.1406,12.1914,12.039,11.9492,11.9297,11.9101,12.039,12.3203,12.3789,12.4883,12.6406,12.7304,12.8008,12.8593,12.8593,12.8711,12.8906,12.8711,12.8711,12.8984,12.9687,13.0586,13.1718,13.25,13.3906,13.5312,13.5312,13.5195,13.5,13.5,13.4414,13.3789,13.3789,13.3789,13.4101,13.5586,13.6914,13.8515,14.0703,14.2187,14.3281,14.3906,14.3984,14.3984,14.3984,14.3984,14.3984,14.3984,14.3984,14.3984,14.3984,14.3789,14.3711,14.3711,14.3515,14.3281,14.3086,14.25,14.2109,14.2109,14.1289,14.0898,14.1211,14.1015,14.0507,13.9882,13.9882,13.8984,13.6992,13.6484,13.5781,13.4687,13.4101,13.3789,13.3789,13.3789,13.3789,0.0,0.0,0.0,0.0,0.0,0.0,0.0,0.0,0.0,0.0,11.8988,11.9995,12.1507,12.1882,12.2197,12.2771,12.287,12.2601,12.1677,12.2293,12.2485,12.1724,12.1608,12.2097,12.3203,12.441,12.559,12.6709,12.6317,12.6015,12.5898,12.4414,12.3086,12.2304,12.2187,12.1797,12.1015,12.0117,11.9218,11.8398,12.0,12.1289,12.2304,12.4804,12.6406,12.7304,12.8203,12.8593,12.8593,12.8593,12.9101,12.9804,12.8906,12.9101,12.9804,12.9883,13.1015,13.2617,13.3398,13.4804,13.6211,13.6211,13.5703,13.5,13.5,13.4414,13.3789,13.3789,13.3789,13.3984,13.4804,13.6914,13.9101,14.0,14.2109,14.3906,14.3984,14.3984,14.3984,14.3984,14.3984,14.3984,14.3984,14.3984,14.3984,14.3984,14.3398,14.289,14.289,14.2109,14.1289,14.0507,14.039,14.0312,14.0312,13.9492,13.9414,14.0195,13.9492,13.8984,13.8984,13.8984,13.8906,13.8789,13.7109,13.5508,13.3906,13.3789,13.3789,13.3789,13.3789,13.3789,0.0,0.0,0.0,0.0,0.0,0.0,0.0,0.0,11.2502,11.6298,11.8195,11.9664,12.1301,12.17,12.1783,12.2032,12.2985,12.3216,12.1793,12.2793,12.3601,12.3216,12.2716,12.3285,12.5524,12.5705,12.6395,12.8299,12.7292,12.6587,12.6797,12.5195,12.3906,12.3086,12.25,12.1484,12.0117,11.9804,11.9414,11.9101,12.0312,12.1914,12.3906,12.5312,12.6797,12.8203,12.8515,12.8593,12.8593,12.8593,12.8789,12.8984,12.8711,12.9101,12.9883,12.9883,13.1015,13.25,13.289,13.3711,13.4687,13.4687,13.4492,13.4297,13.4804,13.4804,13.4609,13.4609,13.539,13.6211,13.5898,13.7812,14.0117,14.1484,14.3007,14.3984,14.3984,14.3984,14.3984,14.3984,14.3984,14.3984,14.3984,14.3984,14.25,13.8086,14.0507,14.1406,13.75,14.0117,14.2382,14.2617,14.2187,14.1914,14.1914,14.1093,14.0507,14.0195,13.9882,13.9492,13.8906,13.8906,13.8593,13.8086,13.75,13.6601,13.539,13.4297,13.3789,13.3789,13.3789,13.3789,7.922,0.0,0.0,0.0,0.0,0.0,10.1981,0.0,10.8906,11.4907,11.7215,11.8908,12.1177,12.16,12.1793,12.2293,12.3909,12.4486,12.3101,12.4293,12.5216,12.4601,12.4101,12.4511,12.6286,12.6103,12.6699,12.8474,12.7396,12.6816,12.7098,12.5819,12.4492,12.3515,12.3203,12.2187,12.0508,12.0781,12.0898,12.0898,12.1797,12.3281,12.5195,12.6093,12.7383,12.8984,12.8711,12.8789,12.8984,12.8711,12.8906,12.9414,12.9218,12.9609,13.039,13.0703,13.1484,13.25,13.2812,13.3281,13.3789,13.3789,13.3789,13.3984,13.4804,13.5,13.5117,13.5703,13.6718,13.7617,13.7617,13.9297,14.1406,14.289,14.3593,14.3984,14.3984,14.3984,14.3984,14.3984,14.3984,14.4101,14.4414,14.4218,14.2617,13.8281,14.0586,14.1406,13.7304,14.0117,14.2617,14.3086,14.2695,14.2187,14.1992,14.1718,14.1015,13.9804,14.0,13.9804,13.8906,13.8906,13.8593,13.8007,13.7695,13.7304,13.6718,13.5,13.4218,13.4218,13.3906,13.3789,0.0,0.0,0.0,0.0,0.0,0.0,9.7365,0.0,10.5713,11.3407,11.5676,11.7484,12.0985,12.1677,12.2293,12.3909,12.5601,12.6409,12.5486,12.6794,12.7294,12.5678,12.5486,12.5409,12.5486,12.5823,12.6298,12.711,12.6607,12.6488,12.6777,12.6083,12.5,12.3593,12.4414,12.3984,12.2304,12.3086,12.3515,12.3515,12.4414,12.5312,12.6093,12.6992,12.8281,12.9883,12.8984,12.9218,12.9883,12.8984,12.9609,13.1093,13.0312,13.0508,13.1406,13.2187,13.25,13.2695,13.3515,13.3789,13.3789,13.3906,13.3906,13.3984,13.4804,13.5117,13.539,13.7109,13.7695,13.8086,13.9882,14.1601,14.3007,14.3789,14.3984,14.3984,14.3984,14.3984,14.3984,14.3984,14.3984,14.4218,14.5117,14.4492,14.4218,14.4882,14.3593,14.25,14.25,14.1797,14.1289,14.1484,14.1484,14.1211,14.0312,14.1015,14.0781,13.8984,13.9687,13.9804,13.8906,13.8906,13.8906,13.8906,13.8086,13.7617,13.7617,13.5898,13.5,13.5,13.4218,13.3789,7.2206,0.0,0.0,0.0,0.0,0.0,0.0,0.0,9.7211,10.6097,11.0983,11.5407,12.06,12.3101,12.4678,12.5794,12.6909,12.7101,12.5601,12.6794,12.7717,12.7294,12.6717,12.6601,12.7217,12.7322,12.7512,12.8,12.73,12.7091,12.7676,12.6597,12.539,12.4492,12.5195,12.4883,12.3203,12.3984,12.4414,12.4492,12.5312,12.6093,12.6992,12.8515,12.9804,13.0781,12.9883,13.0781,13.25,12.9687,13.0,13.1992,13.0508,13.1211,13.3008,13.2617,13.289,13.3593,13.4414,13.4687,13.4804,13.539,13.5586,13.5781,13.6601,13.6914,13.6992,13.75,13.8984,14.0781,14.25,14.3281,14.3711,14.3906,14.3593,14.3086,14.3086,14.3086,14.3086,14.3086,14.3086,14.3203,14.3515,14.3281,14.1718,13.7617,13.6601,13.6289,13.6289,13.6093,13.7617,14.1992,14.2382,14.2109,14.1211,14.1406,14.1015,13.9882,14.0117,13.9804,13.8906,13.8906,13.8906,13.8906,13.8711,13.8515,13.8515,13.6797,13.5586,13.5,13.4218,13.3789,7.2399,0.0,0.0,0.0,0.0,0.0,8.5247,8.9171,9.3941,10.3597,10.8021,11.2099,11.8792,12.01,12.1293,12.4986,12.6294,12.6909,12.6986,12.7794,12.8409,12.8409,12.7717,12.7294,12.7409,12.7717,12.7823,12.7671,12.7478,12.7611,12.7895,12.7383,12.6483,12.5312,12.6093,12.5898,12.4609,12.539,12.6015,12.6406,12.6914,12.75,12.8398,12.9804,13.0898,13.1718,13.1601,13.2617,13.4101,13.1718,13.1718,13.289,13.1484,13.2109,13.3789,13.3984,13.4414,13.5,13.5781,13.6093,13.6093,13.6289,13.6289,13.6484,13.7304,13.7617,13.7812,13.8906,14.0586,14.2304,14.3711,14.3515,14.3007,14.3398,14.289,14.2304,14.2304,14.25,14.2812,14.2812,14.3086,14.3515,14.4297,14.3789,14.2382,13.9609,13.8515,13.8086,13.8086,13.8086,13.9297,14.25,14.2812,14.2304,14.1093,14.1289,14.1015,13.9687,14.0,13.9804,13.8906,13.8906,13.8906,13.8906,13.8906,13.8906,13.8906,13.75,13.6406,13.5508,13.5117,13.4804,7.2822,7.3437,0.0,0.0,0.0,0.0,8.6017,8.9133,9.2672,10.2289,10.4597,10.7098,11.4599,11.3714,11.4099,12.0793,12.3216,12.5409,12.8602,12.9102,12.9217,12.9102,12.8486,12.7717,12.6794,12.7409,12.7602,12.6909,12.7496,12.7918,12.769,12.8198,12.7801,12.6289,12.6992,12.6992,12.6211,12.6992,12.7812,12.8593,12.8711,12.9218,13.0117,13.1015,13.1992,13.3008,13.3593,13.4414,13.5195,13.4297,13.3984,13.4101,13.3086,13.3203,13.4218,13.5586,13.6211,13.6406,13.7304,13.7695,13.7617,13.6797,13.6601,13.6797,13.7617,13.789,13.8398,14.0898,14.2187,14.3007,14.3711,14.2812,14.1797,14.25,14.1992,14.1406,14.1406,14.1992,14.2695,14.2695,14.3281,14.4414,14.5898,14.5,14.4492,14.6093,14.4492,14.3398,14.3906,14.3281,14.2812,14.2695,14.2617,14.1797,14.0195,14.0781,14.0586,13.8984,13.9609,13.9687,13.8906,13.8906,13.8906,13.8906,13.8906,13.8906,13.8906,13.8007,13.7187,13.6406,13.6289,13.6289,7.3937,7.3476,7.3091,0.0,0.0,0.0,0.0,7.9939,8.3747,8.9863,9.3287,9.7134,10.3405,10.5713,10.6905,10.7713,11.3099,11.9792,12.7101,12.8794,12.8909,12.8217,12.8602,12.8409,12.6794,12.7409,12.7794,12.7717,12.8091,12.827,12.8178,12.8219,12.8016,12.7695,12.8086,12.789,12.7109,12.789,12.8398,12.8593,12.9297,13.0117,13.1015,13.2617,13.4101,13.5508,13.5,13.5703,13.6992,13.539,13.5586,13.6601,13.4414,13.4492,13.5781,13.539,13.5703,13.6406,13.7304,13.8086,13.8593,13.8398,13.8398,13.8593,13.9414,13.9687,14.0117,14.1992,14.2695,14.2812,14.3007,14.2812,14.2382,14.1914,14.1093,14.0507,14.0507,14.1093,14.1797,14.1797,14.2382,14.3086,14.3515,14.3789,14.4101,14.4492,14.0703,13.9297,14.3515,13.9218,13.7304,14.1289,14.1093,14.0312,13.9218,13.9297,13.9297,13.8906,13.9101,13.9101,13.8906,13.8906,13.8906,13.8906,13.8906,13.8906,13.8906,13.8007,13.75,13.7304,13.6601,13.6289,7.4707,7.4399,7.4399,7.5668,0.0,0.0,0.0,0.0,8.2247,8.6517,8.8748,9.1633,9.7134,9.8173,9.9288,10.2712,10.929,11.5484,11.9715,12.3985,12.6794,12.7294,12.7294,12.7101,12.6678,12.7409,12.7717,12.7294,12.7599,12.7806,12.7806,12.819,12.8494,12.8593,12.8788,12.8905,12.8895,12.8895,12.9598,13.0808,13.0808,13.1511,13.2799,13.4204,13.5319,13.6211,13.6601,13.7109,13.75,13.6718,13.6797,13.7382,13.5195,13.4687,13.5195,13.6015,13.6601,13.7109,13.8398,13.9218,13.9492,13.8984,13.8906,13.8984,13.9414,14.0195,14.1015,14.1914,14.2187,14.2187,14.2187,14.1484,14.0898,14.0898,14.0195,13.9609,13.9609,14.0195,14.1093,14.1992,14.2812,14.3711,14.4492,14.4687,14.4882,14.5781,14.3007,14.1601,14.3711,14.1015,13.9414,14.0703,14.0781,14.0312,13.8984,13.8906,13.8906,13.8906,13.8906,13.8906,13.8906,13.8906,13.8906,13.8906,13.8906,13.8906,13.8906,13.8515,13.8203,13.8203,13.7812,13.7617,0.0,0.0,0.0,0.0,0.0,7.6284,0.0,0.0,0.0,0.0,0.0,0.0,9.1018,9.0287,9.1018,9.7211,10.4212,10.879,10.879,11.5407,12.1408,12.4601,12.5178,12.5486,12.5909,12.6601,12.6909,12.6678,12.6393,12.6411,12.6797,12.8077,12.8905,12.9013,12.9109,12.9599,13.0478,12.9894,13.0595,13.2604,13.2385,13.3007,13.4395,13.5484,13.6211,13.6711,13.7986,13.8315,13.8007,13.7695,13.7617,13.7382,13.5898,13.4883,13.4609,13.6992,13.789,13.8086,13.9687,14.0195,14.0117,13.9218,13.9101,13.9414,13.9414,14.0507,14.1797,14.1797,14.1601,14.1484,14.1289,14.0195,13.9297,13.9804,13.9492,13.9218,13.9218,14.0,14.1211,14.2695,14.3711,14.4804,14.6289,14.6211,14.6211,14.7187,14.6211,14.4882,14.3906,14.3515,14.25,14.039,14.0703,14.039,13.8984,13.8906,13.8906,13.8906,13.8906,13.8906,13.8906,13.8906,13.8906,13.8906,13.8906,13.8906,13.8906,13.8906,13.8906,13.8906,13.8906,13.8906,0.0,0.0,0.0,0.0,7.8284,0.0,0.0,0.0,0.0,0.0,0.0,0.0,0.0,0.0,0.0,8.2247,8.9363,9.4788,9.4788,10.1404,10.929,11.7792,12.2716,12.4909,12.3485,12.3408,12.4409,12.6486,12.461,12.4003,12.5504,12.7493,12.858,12.8713,12.8987,12.9615,13.0514,13.0399,13.0476,13.0825,13.2992,13.4192,13.4502,13.6013,13.7602,13.9111,13.8493,13.8682,13.9414,13.789,13.7382,13.75,13.6484,13.6093,13.6211,13.8086,13.8789,13.8906,13.9882,14.0195,14.0117,13.9218,13.9882,14.1211,14.1211,14.1914,14.2695,14.2695,14.2109,14.1289,14.0507,14.0195,13.9882,13.9218,13.9609,14.0117,14.0117,14.1289,14.2812,14.3711,14.4609,14.5507,14.6406,14.7187,14.7109,14.5781,14.539,14.4687,14.3086,14.1601,14.0507,14.0195,13.9609,13.9101,13.8906,13.8906,13.8906,13.8906,13.8906,13.8906,13.8906,13.8906,13.8906,13.8906,13.8906,13.8906,13.8906,13.8906,13.8906,13.8906,13.8906,13.8906,0.0,0.0,0.0,0.0,0.0,0.0,0.0,0.0,7.6553,0.0,0.0,0.0,0.0,0.0,0.0,0.0,8.7286,0.0,9.1133,9.8019,10.4982,10.9906,11.2291,11.3907,11.4714,11.6599,11.8407,11.9985,12.0908,12.21,12.3909,12.6568,12.8013,12.7692,12.8809,13.0089,13.1597,13.1208,13.2098,13.4614,13.5191,13.5965,13.697,13.7709,13.8715,14.0034,13.9071,13.9373,14.0191,13.8521,13.7882,13.8086,13.7695,13.7109,13.6406,13.7695,13.8086,13.8281,13.9101,13.9414,13.9414,13.8984,13.9414,14.0117,14.0586,14.1015,14.1289,14.1289,14.1015,14.0507,13.9687,13.9414,13.9492,13.9609,13.9882,14.0312,14.0781,14.1484,14.2617,14.4414,14.5,14.5703,14.7109,14.6797,14.6093,14.539,14.4492,14.3398,14.2187,14.1406,14.0586,13.9609,13.9609,13.9414,13.8906,13.8906,13.9101,13.9609,14.0117,14.0195,13.9687,13.9687,13.9414,13.8906,13.8906,13.8906,13.8906,13.8906,13.8906,13.8906,13.8906,13.8906,8.2285,0.0,0.0,0.0,0.0,0.0,0.0,0.0,0.0,0.0,0.0,0.0,0.0,0.0,0.0,0.0,0.0,8.9248,8.7979,9.3326,0.0,0.0,0.0,10.5905,10.8598,11.0098,11.2099,11.5099,11.6484,11.86,12.1985,12.5418,12.7091,12.6619,12.8322,13.0108,13.2018,13.1592,13.31,13.6386,13.6695,13.7314,13.801,13.8517,13.9329,14.0175,13.9406,13.9484,14.023,13.8883,13.8295,13.8108,13.8319,13.7804,13.6992,13.8007,13.8203,13.8086,13.8984,13.9101,13.8906,13.8906,13.9101,13.9414,14.0,14.0195,14.0195,14.0195,14.0,13.9687,13.9101,13.8906,13.9101,13.9687,14.0195,14.0781,14.1718,14.2187,14.3203,14.5586,14.6015,14.6289,14.7382,14.6914,14.6015,14.5117,14.3906,14.2617,14.1289,14.0898,14.0312,13.8984,13.9492,13.9609,13.8984,13.8906,13.9297,14.0117,14.0781,14.0898,14.0195,14.0,13.9492,13.8906,13.8906,13.8906,13.8906,13.8906,13.8906,13.8906,13.8906,13.8906,0.0,0.0,0.0,8.4286,0.0,0.0,0.0,0.0,7.9438,0.0,0.0,0.0,0.0,0.0,0.0,0.0,0.0,0.0,0.0,0.0,0.0,0.0,0.0,0.0,10.8598,10.529,10.6405,11.4676,11.1598,11.2483,11.9985,12.3741,12.5713,12.5597,12.7429,12.9094,13.0791,13.1679,13.2566,13.3569,13.6771,13.7466,13.6077,13.7798,13.9034,13.9713,13.8918,13.8821,13.9028,13.8869,13.8173,13.7097,13.7871,13.8291,13.8711,13.9687,13.9609,13.8984,13.9882,13.9609,13.8906,13.8906,13.9492,14.0195,14.0195,14.0195,14.0195,14.0195,13.9609,13.8906,13.8906,13.8906,13.8906,13.8906,14.0195,14.1718,14.2617,14.3984,14.5703,14.75,14.7812,14.7617,14.6797,14.8007,14.789,14.4492,14.3984,14.3086,14.0586,13.9492,13.8984,13.8906,13.8906,13.8906,13.8906,13.8906,13.9297,14.0117,14.0195,14.0195,14.0195,13.9414,13.8906,13.8906,13.8906,13.8906,13.8906,13.8906,13.8906,13.8906,13.8906,13.8906,0.0,0.0,9.2056,8.8632,0.0,0.0,0.0,0.0,0.0,0.0,0.0,0.0,0.0,0.0,0.0,0.0,0.0,0.0,0.0,0.0,0.0,0.0,0.0,0.0,0.0,9.7288,9.9865,10.3289,10.4289,10.779,11.4907,11.9107,12.2578,12.5481,12.7801,12.989,13.1601,13.1987,13.3106,13.5112,13.7312,13.8083,13.7582,13.9404,14.033,14.0514,14.0292,14.0494,14.1004,13.9969,13.9401,13.9101,13.8917,13.8579,13.8403,13.8912,13.8984,13.8984,13.9882,13.9609,13.8984,13.9609,13.9609,13.9297,13.9297,13.9297,13.9297,13.9297,13.9101,13.8906,13.8906,13.8906,13.8984,13.9609,14.0195,14.1015,14.25,14.3711,14.5,14.6718,14.6992,14.6914,14.6718,14.7109,14.6484,14.3593,14.2187,14.1211,14.0312,13.9414,13.8906,13.8906,13.8906,13.8906,13.8906,13.9414,13.9882,14.0195,14.0703,14.0781,14.0195,13.9882,13.9492,13.8906,13.8906,13.8906,13.8906,13.8906,13.8906,13.8906,13.8906,13.8906,10.1981,10.0789,0.0,9.6019,9.2826,0.0,8.4632,0.0,0.0,0.0,0.0,0.0,0.0,0.0,0.0,0.0,0.0,0.0,0.0,8.2285,0.0,0.0,0.0,0.0,0.0,9.1479,9.4018,9.725,9.8711,10.2404,10.9213,11.4984,11.9607,12.2701,12.713,12.998,13.1501,13.2079,13.3389,13.5393,13.759,13.8592,13.84,14.0107,14.0917,14.0905,14.0878,14.0994,14.1198,14.0475,13.9807,13.9086,13.9015,13.8594,13.8067,13.8392,13.8789,13.9414,14.0312,14.0117,13.9492,14.0,13.9609,13.8906,13.8906,13.8906,13.8906,13.8906,13.8906,13.8906,13.8906,13.8906,13.8984,13.9609,14.0,14.0586,14.1992,14.3203,14.4414,14.5898,14.6406,14.6601,14.6601,14.6289,14.539,14.3086,14.1797,14.0898,14.0312,13.9414,13.8906,13.8906,13.8906,13.8906,13.8906,13.9687,14.0195,14.0195,14.0703,14.0781,14.0195,13.9882,13.9492,13.8906,13.8906,13.8906,13.8906,13.8906,13.8906,13.8906,13.8906,13.8906]},{"header":{"parameterUnit":"m.s-1","parameterCategory":1,"la1":30.6,"la2":29.2853,"lo1":-89.7004,"lo2":-87.6739,"dy":0.0162,"dx":0.0183,"nx":112,"ny":82,"refTime":"2026-03-07T12:00:00:Z","depth":0,"parameterNumber":3,"parameterNumberName":"V-component_of_WINDS"},"data":[0.0,0.0,0.0,0.0,0.0,0.0,0.0,0.0,0.0,0.0,0.0,0.0,0.0,0.0,0.0,0.0,0.0,0.0,0.0,0.0,0.0,0.0,0.0,0.0,0.0,0.0,0.0,0.0,0.0,0.0,0.0,0.0,0.0,0.0,0.0,0.0,0.0,0.0,0.0,0.0,0.0,0.0,0.0,0.0,0.0,0.0,0.0,0.0,0.0,0.0,0.0,0.0,0.0,0.0,0.0,0.0,0.0,0.0,0.0,0.0,0.0,0.0,0.0,0.0,0.0,0.0,0.0,0.0,0.0,0.0,0.0,0.0,0.0,0.0,0.0,0.0,0.0,0.0,0.0,0.0,0.0,0.0,0.0,0.0,0.0,0.0,0.0,0.0,0.0,0.0,0.0,-0.4813,-0.6097,-0.7825,-0.9853,-1.1134,-1.1795,-1.1647,0.0,0.0,0.0,0.0,0.0,0.0,0.0,0.0,0.0,0.0,0.0,0.0,0.0,0.0,0.0,0.0,0.0,0.0,0.0,0.0,0.0,0.0,0.0,0.0,0.0,0.0,0.0,0.0,0.0,0.0,0.0,0.0,0.0,0.0,0.0,0.0,0.0,0.0,0.0,0.0,0.0,0.0,0.0,0.0,0.0,0.0,0.0,0.0,0.0,0.0,0.0,0.0,0.0,0.0,0.0,0.0,0.0,0.0,0.0,0.0,0.0,0.0,0.0,0.0,0.0,0.0,0.0,0.0,0.0,0.0,0.0,0.0,0.0,0.0,0.0,0.0,0.0,0.0,0.0,0.0,0.0,0.0,0.0,0.0,0.0,0.0,0.0,0.0,0.0,0.0,0.0,0.0,0.0,0.0,0.0,0.0,0.0,0.0,0.0,0.0,0.0,0.0,0.0,0.0,-0.6189,-0.4926,-0.5237,-0.6573,-0.9692,-1.0048,-1.0577,-1.1502,0.0,0.0,0.0,0.0,0.0,0.0,0.0,0.0,0.0,0.0,0.0,0.0,0.0,0.0,0.0,0.0,0.0,0.0,0.0,0.0,0.0,0.0,0.0,0.0,0.0,0.0,0.0,0.0,0.0,0.0,0.0,0.0,0.0,0.0,0.0,0.0,0.0,0.0,0.0,0.0,0.0,0.0,0.0,0.0,0.0,0.0,0.0,0.0,0.0,0.0,0.0,0.0,0.0,0.0,0.0,0.0,0.0,0.0,0.0,0.0,0.0,0.0,0.0,0.0,0.0,0.0,0.0,0.0,0.0,0.0,0.0,0.0,0.0,0.0,0.0,0.0,0.0,0.0,0.0,0.0,0.0,0.0,0.0,0.0,0.0,0.0,0.0,0.0,0.0,0.0,0.0,0.0,0.0,0.0,0.0,0.0,0.0,0.0,0.0,0.0,0.0,0.0,0.0,-0.4157,-0.4018,-0.3645,-0.4497,-0.5952,-0.8448,-0.9433,-1.0277,-1.1502,-1.1477,0.0,0.0,0.0,0.0,0.0,0.0,0.0,0.0,0.0,0.0,0.0,0.0,0.0,0.0,0.0,0.0,0.0,0.0,0.0,0.0,0.0,0.0,0.0,0.0,0.0,0.0,0.0,0.0,0.0,0.0,0.0,0.0,0.0,0.0,0.0,0.0,0.0,0.0,0.0,0.0,0.0,0.0,0.0,0.0,0.0,0.0,0.0,0.0,0.0,0.0,0.0,0.0,0.0,0.0,0.0,0.0,0.0,0.0,0.0,0.0,0.0,0.0,0.0,0.0,0.0,0.0,0.0,0.0,0.0,0.0,0.0,0.0,0.0,0.0,0.0,0.0,0.0,0.0,0.0,0.0,0.0,0.0,0.0,0.0,0.0,0.0,0.0,0.0,0.0,0.0,0.0,0.0,0.0,0.0,0.0,0.0,0.0,0.0,0.0,0.0,0.0,0.0,-0.3135,-0.2354,-0.2467,-0.3589,-0.5014,-0.6733,-0.8329,-0.9644,-1.0913,-1.1295,0.0,0.0,0.0,0.0,0.0,0.0,0.0,0.0,0.0,0.0,0.0,0.0,0.0,0.0,0.0,0.0,0.0,0.0,0.0,0.0,0.0,0.0,0.0,0.0,0.0,0.0,0.0,0.0,0.0,0.0,0.0,0.0,0.0,0.0,0.0,0.0,0.0,0.0,0.0,0.0,0.0,0.0,0.0,0.0,0.0,0.0,0.0,0.0,0.0,0.0,0.0,0.0,0.0,0.0,0.0,0.0,0.0,0.0,0.0,0.0,0.0,0.0,0.0,0.0,0.0,0.0,0.0,0.0,0.0,0.0,0.0,0.0,0.0,0.0,0.0,0.0,0.0,0.0,0.0,0.0,0.0,0.0,0.0,0.0,0.0,0.0,0.0,0.0,0.0,0.0,0.0,0.0,0.0,0.0,0.0,0.0,0.0,0.0,0.0,0.0,0.0,0.0,-0.3186,-0.2408,-0.2502,-0.2669,-0.3297,-0.5014,-0.6434,-0.7914,-0.9157,-1.0486,0.0,0.0,0.0,0.0,0.0,0.0,0.0,0.0,0.0,0.0,0.0,0.0,0.0,0.0,0.0,0.0,0.0,0.0,0.0,0.0,0.0,0.0,0.0,0.0,0.0,0.0,0.0,0.0,0.0,0.0,0.0,0.0,0.0,0.0,0.0,0.0,0.0,0.0,0.0,0.0,0.0,0.0,0.0,0.0,0.0,0.0,0.0,0.0,0.0,0.0,0.0,0.0,0.0,0.0,0.0,0.0,0.0,0.0,0.0,0.0,0.0,0.0,0.0,0.0,0.0,0.0,0.0,0.0,0.0,0.0,0.0,0.0,0.0,0.0,0.0,0.0,0.0,0.0,0.0,0.0,0.0,0.0,0.0,0.0,0.0,0.0,0.0,0.0,0.0,0.0,0.0,0.0,0.0,0.0,0.0,0.0,0.0,0.0,0.0,0.0,0.0,0.0,-0.2593,-0.2393,0.0,-0.2514,-0.314,-0.4857,-0.5553,-0.6773,-0.9018,0.0,0.0,0.0,0.0,0.0,0.0,0.0,0.0,0.0,0.0,0.0,0.0,0.0,0.0,0.0,0.0,0.0,0.0,0.0,0.0,0.0,0.0,0.0,0.0,0.0,0.0,0.0,0.0,0.0,0.0,0.0,0.0,0.0,0.0,0.0,0.0,0.0,0.0,0.0,0.0,0.0,0.0,0.0,0.0,0.0,0.0,0.0,0.0,0.0,0.0,0.0,0.0,0.0,0.0,0.0,0.0,0.0,0.0,0.0,0.0,0.0,0.0,0.0,0.0,0.0,0.0,0.0,0.0,0.0,0.0,0.0,0.0,0.0,0.0,0.0,0.0,0.0,0.0,0.0,0.0,0.0,0.0,0.0,0.0,0.0,0.0,0.0,0.0,0.0,0.0,0.0,0.0,0.0,0.0,0.0,0.0,0.0,0.0,0.0,0.0,0.0,0.0,-0.2238,-0.2313,-0.2408,0.0,-0.2544,-0.3027,-0.4166,-0.4721,-0.5806,-0.761,0.0,0.0,0.0,0.0,0.0,0.0,0.0,0.0,0.0,0.0,0.0,0.0,0.0,0.0,0.0,0.0,0.0,0.0,0.0,0.0,0.0,0.0,0.0,0.0,0.0,0.0,0.0,0.0,0.0,0.0,0.0,0.0,0.0,0.0,0.0,0.0,0.0,0.0,0.0,0.0,0.0,0.0,0.0,0.0,0.0,0.0,0.0,0.0,0.0,0.0,0.0,0.0,0.0,0.0,0.0,0.0,0.0,0.0,0.0,0.0,0.0,0.0,0.0,0.0,0.0,0.0,0.0,0.0,0.0,0.0,0.0,0.0,0.0,0.0,0.0,0.0,0.0,0.0,0.0,0.0,0.0,0.0,0.0,0.0,0.0,0.0,0.0,0.0,0.0,0.0,0.0,0.0,0.0,0.0,0.0,0.0,0.0,0.0,0.0,0.0,0.0,0.0,-0.2243,-0.2352,-0.2473,-0.2432,-0.2444,-0.2465,-0.2519,-0.4232,-0.5153,0.0,0.0,0.0,0.0,0.0,0.0,0.0,0.0,0.0,0.0,0.0,0.0,0.0,0.0,0.0,0.0,0.0,0.0,0.0,0.0,0.0,0.0,0.0,0.0,0.0,0.0,0.0,0.0,0.0,0.0,0.0,0.0,0.0,0.0,0.0,0.0,0.0,0.0,0.0,0.0,0.0,0.0,0.0,0.0,0.0,0.0,0.0,0.0,0.0,0.0,0.0,0.0,0.0,0.0,0.0,0.0,0.0,0.0,0.0,0.0,0.0,0.0,0.0,0.0,0.0,0.0,0.0,0.0,0.0,0.0,0.0,0.0,0.0,0.0,0.0,0.0,0.0,0.0,0.0,0.0,0.0,0.0,0.0,0.0,0.0,0.0,0.0,0.0,0.0,0.0,0.0,0.0,0.0,0.0,0.0,0.0,0.0,0.0,0.0,0.0,0.0,0.0,0.0,0.0,-0.1861,-0.1638,-0.1699,-0.1706,-0.1705,-0.1703,-0.2161,-0.3662,-0.6697,0.0,0.0,0.0,0.0,0.0,0.0,0.0,0.0,0.0,0.0,0.0,0.0,0.0,0.0,0.0,0.0,0.0,0.0,0.0,0.0,0.0,0.0,0.0,0.0,0.0,0.0,0.0,0.0,0.0,0.0,0.0,0.0,0.0,0.0,0.0,0.0,0.0,0.0,0.0,0.0,0.0,0.0,0.0,0.0,0.0,0.0,0.0,0.0,0.0,0.0,0.0,0.0,0.0,0.0,0.0,0.0,0.0,0.0,0.0,0.0,0.0,0.0,0.0,0.0,0.0,0.0,0.0,0.0,0.0,0.0,0.0,0.0,0.0,0.0,0.0,0.0,0.0,0.0,0.0,0.0,0.0,0.0,0.0,0.0,0.0,0.0,0.0,0.0,0.0,0.0,0.0,0.0,0.0,0.0,0.0,0.0,0.0,0.0,0.0,0.0,0.0,0.0,-0.1776,-0.1744,-0.1346,-0.0877,-0.0705,-0.0705,-0.0707,-0.0866,-0.1823,-0.4448,0.0,0.0,0.0,0.0,0.0,0.0,0.0,0.0,0.0,0.0,0.0,0.0,0.0,0.0,0.0,0.0,0.0,0.0,0.0,0.0,0.0,0.0,0.0,0.0,0.0,0.0,0.0,0.0,0.0,0.0,0.0,0.0,0.0,0.0,0.0,0.0,0.0,0.0,0.0,0.0,0.0,0.0,0.0,0.0,0.0,0.0,0.0,0.0,0.0,0.0,0.0,0.0,0.0,0.0,0.0,0.0,0.0,0.0,0.0,0.0,0.0,0.0,0.0,0.0,0.0,0.0,0.0,0.0,0.0,0.0,0.0,0.0,0.0,0.0,0.0,0.0,0.0,0.0,0.0,0.0,0.0,0.0,0.0,0.0,0.0,0.0,0.0,0.0,0.0,0.0,0.0,0.0,0.0,0.0,0.0,0.0,0.0,0.0,0.0,0.0,0.0,0.0,-0.0892,-0.1598,-0.1535,-0.018,0.0,0.0,0.0,0.0,0.0,0.0,0.0,0.0,0.0,0.0,0.0,0.0,0.0,0.0,0.0,0.0,0.0,0.0,0.0,0.0,0.0,0.0,0.0,0.0,0.0,0.0,0.0,0.0,0.0,0.0,0.0,0.0,0.0,0.0,0.0,0.0,0.0,0.0,0.0,0.0,0.0,0.0,0.0,0.0,0.0,0.0,0.0,0.0,0.0,0.0,0.0,0.0,0.0,0.0,0.0,0.0,0.0,0.0,0.0,0.0,0.0,0.0,0.0,0.0,0.0,0.0,0.0,0.0,0.0,0.0,0.0,0.0,0.0,0.0,0.0,0.0,0.0,0.0,0.0,0.0,0.0,0.0,0.0,0.0,0.0,0.0,0.0,0.0,0.0,0.0,0.0,0.0,0.0,0.0,0.0,0.0,0.0,0.0,0.0,0.0,0.0,0.0,0.0,0.0,0.0,0.0,0.0,0.0,-0.0309,-0.0338,-0.0363,-0.0,0.0,0.0,0.0,0.0,0.0,0.0,0.0,0.0,0.0,0.0,0.0,0.0,0.0,0.0,0.0,0.0,0.0,0.0,0.0,0.0,0.0,0.0,0.0,0.0,0.0,0.0,0.0,0.0,0.0,0.0,0.0,0.0,0.0,0.0,0.0,0.0,0.0,0.0,0.0,0.0,0.0,0.0,0.0,0.0,0.0,0.0,0.0,0.0,0.0,0.0,0.0,0.0,0.0,0.0,0.0,0.0,0.0,0.0,0.0,0.0,0.0,0.0,0.0,0.0,0.0,0.0,0.0,0.0,0.0,0.0,0.0,0.0,0.0,0.0,0.0,0.0,0.0,0.0,0.0,0.0,0.0,0.0,0.0,0.0,0.0,0.0,0.0,0.0,0.0,0.0,0.0,0.0,0.0,0.0,0.0,0.0,0.0,0.0,0.0,0.0,0.0,0.0,0.0,0.0,0.0,0.0,0.0,0.0,-0.0946,-0.0345,0.0,0.0,0.0,0.0,0.0,0.0,0.0,0.0,0.0,0.0,0.0,0.0,0.0,0.0,0.0,0.0,0.0,0.0,0.0,0.0,0.0,0.0,0.0,0.0,0.0,0.0,0.0,0.0,0.0,0.0,0.0,0.0,0.0,0.0,0.0,0.0,0.0,0.0,0.0,0.0,0.0,0.0,0.0,0.0,0.0,0.0,0.0,0.0,0.0,0.0,0.0,0.0,0.0,0.0,0.0,0.0,0.0,0.0,0.0,0.0,0.0,0.0,0.0,0.0,0.0,0.0,0.0,0.0,0.0,0.0,0.0,0.0,0.0,0.0,0.0,0.0,0.0,0.0,0.0,0.0,0.0,0.0,0.0,0.0,0.0,0.0,0.0,0.0,0.0,0.0,0.0,0.0,0.0,0.0,0.0,0.0,-0.0801,-0.1603,-0.1661,0.0,0.0,0.0,0.0,0.0,0.0,0.0,0.0,0.0,0.0,0.0,-0.144,-0.0695,0.0,0.0,0.0,0.0,0.0,0.0,0.0,0.0,0.0,-0.0,0.0,0.0,0.0,0.0,0.0,0.0,0.0,0.0,0.0,0.0,0.0,0.0,0.0,0.0,0.0,0.0,0.0,0.0,0.0,0.0,0.0,0.0,0.0,0.0,0.0,0.0,0.0,0.0,0.0,0.0,0.0,0.0,0.0,0.0,0.0,0.0,0.0,0.0,0.0,0.0,0.0,0.0,0.0,0.0,0.0,0.0,0.0,0.0,0.0,0.0,0.0,0.0,0.0,0.0,0.0,0.0,0.0,0.0,0.0,0.0,0.0,0.0,0.0,0.0,0.0,0.0,0.0,0.0,0.0,0.0,0.0,0.0,0.0,0.0,0.0,0.0,0.0,0.0,0.0,0.0,0.0,0.0,0.0,0.0,0.0,0.0,-0.0173,-0.0348,0.0,-0.0958,-0.177,-0.261,-0.2294,0.0,0.0,0.0,0.0,0.0,0.0,0.0,-0.0164,-0.0177,0.0,0.0,0.0,0.0,0.0,0.0,0.0,0.0,0.0,-0.0339,-0.1142,-0.1846,0.0,0.0,0.0,0.0,0.0,0.0,0.0,0.0,0.0,0.0,0.0,0.0,0.0,0.0,0.0,0.0,0.0,0.0,0.0,0.0,0.0,0.0,0.0,0.0,0.0,0.0,0.0,0.0,0.0,0.0,0.0,0.0,0.0,0.0,0.0,0.0,0.0,0.0,0.0,0.0,0.0,0.0,0.0,0.0,0.0,0.0,0.0,0.0,0.0,0.0,0.0,0.0,0.0,0.0,0.0,0.0,0.0,0.0,0.0,0.0,0.0,0.0,0.0,0.0,0.0,0.0,0.0,0.0,0.0,0.0,0.0,0.0,0.0,0.0,0.0,0.0,0.0,0.0,0.0,0.0,0.0,0.0,0.0,0.0,0.0,0.0,0.0,-0.0355,-0.1001,0.0,-0.2614,-0.2233,-0.1421,0.0,0.0,0.0,0.0,0.0,0.0,0.0,0.0,0.0,0.0,0.0,0.0,0.0,0.0,0.0,0.0,-0.0179,-0.0521,-0.164,-0.312,0.0,0.0,0.0,0.0,0.0,0.0,0.0,0.0,0.0,0.0,0.0,0.0,0.0,0.0,0.0,0.0,0.0,0.0,0.0,0.0,0.0,0.0,0.0,0.0,0.0,0.0,0.0,0.0,0.0,0.0,0.0,0.0,0.0,0.0,0.0,0.0,0.0,0.0,0.0,0.0,0.0,0.0,0.0,0.0,0.0,0.0,0.0,0.0,0.0,0.0,0.0,0.0,0.0,0.0,0.0,0.0,0.0,0.0,0.0,0.0,0.0,0.0,0.0,0.0,0.0,0.0,0.0,0.0,0.0,0.0,0.0,0.0,0.0,0.0,0.0,0.0,0.0,0.0,0.0,0.0,0.0,0.0,0.0,0.0,0.0,0.0,0.0,-0.0365,0.0,-0.2481,-0.2557,-0.1827,0.0,0.0,0.0,0.0,0.0,0.0,0.0,0.0,0.0,0.0,0.0,0.0,0.0,0.0,0.0,0.0,0.0,0.0,-0.1571,-0.2682,-0.2751,0.0,0.0,0.0,0.0,0.0,0.0,0.0,0.0,0.0,0.0,0.0,0.0,0.0,0.0,0.0,0.0,0.0,0.0,0.0,0.0,0.0,0.0,0.0,0.0,0.0,0.0,0.0,0.0,0.0,0.0,0.0,0.0,0.0,0.0,0.0,0.0,0.0,0.0,0.0,0.0,0.0,0.0,0.0,0.0,0.0,0.0,0.0,0.0,0.0,0.0,0.0,0.0,0.0,0.0,0.0,0.0,0.0,0.0,0.0,0.0,0.0,0.0,0.0,0.0,0.0,0.0,0.0,0.0,0.0,0.0,0.0,0.0,0.0,0.0,0.0,0.0,0.0,0.0,0.0,0.0,0.0,0.0,0.0,0.0,0.0,0.0,-0.0,0.0,-0.1594,-0.2081,-0.0332,0.0,0.0,0.0,0.0,0.0,0.0,0.0,0.0,0.0,0.0,0.0,0.0,0.0,0.0,0.0,0.0,0.0,0.0,-0.0931,-0.1968,-0.285,-0.5656,0.0,0.0,0.0,0.0,0.0,0.0,0.0,0.0,0.0,0.0,0.0,0.0,0.0,0.0,0.0,0.0,0.0,0.0,0.0,0.0,0.0,0.0,0.0,0.0,0.0,0.0,0.0,0.0,0.0,0.0,0.0,0.0,0.0,0.0,0.0,0.0,0.0,0.0,0.0,0.0,0.0,0.0,0.0,0.0,0.0,0.0,0.0,0.0,0.0,0.0,0.0,0.0,0.0,0.0,0.0,0.0,0.0,0.0,0.0,0.0,0.0,0.0,0.0,0.0,0.0,0.0,0.0,0.0,0.0,0.0,0.0,0.0,0.0,0.0,0.0,0.0,0.0,0.0,0.0,0.0,0.0,0.0,0.0,0.0,0.0,0.0,0.0,-0.0551,-0.0702,-0.0172,0.0,0.0,0.0,0.0,0.0,0.0,0.0,0.0,0.0,0.0,0.0,0.0,0.0,0.0,0.0,0.0,-0.0578,-0.1908,-0.1694,-0.2757,-0.5314,-0.685,-0.8042,0.0,0.0,0.0,0.0,0.0,0.0,0.0,0.0,0.0,0.0,0.0,0.0,0.0,0.0,0.0,0.0,0.0,0.0,0.0,0.0,0.0,0.0,0.0,0.0,0.0,0.0,0.0,0.0,0.0,0.0,0.0,0.0,0.0,0.0,0.0,0.0,0.0,0.0,0.0,0.0,0.0,0.0,0.0,0.0,0.0,0.0,0.0,0.0,0.0,0.0,0.0,0.0,0.0,0.0,0.0,0.0,0.0,0.0,0.0,0.0,0.0,0.0,0.0,0.0,0.0,0.0,0.0,0.0,0.0,0.0,0.0,0.0,0.0,0.0,0.0,0.0,0.0,0.0,0.0,0.0,0.0,0.0,0.0,0.0,0.0,0.0,0.0,0.0,0.0,0.0,0.0,0.0,0.0,0.0,0.0,0.0,0.0,0.0,0.0,0.0,0.0,0.0,0.0,0.0,0.0,-0.1328,-0.4559,-0.3922,-0.477,-0.7031,-0.8077,-0.9035,-1.0121,0.0,0.0,0.0,0.0,0.0,0.0,0.0,0.0,0.0,0.0,0.0,0.0,0.0,0.0,0.0,0.0,0.0,0.0,0.0,0.0,0.0,0.0,0.0,0.0,0.0,0.0,0.0,0.0,0.0,0.0,0.0,0.0,0.0,0.0,0.0,0.0,0.0,0.0,0.0,0.0,0.0,0.0,0.0,0.0,0.0,0.0,0.0,0.0,0.0,0.0,0.0,0.0,0.0,0.0,0.0,0.0,0.0,0.0,0.0,0.0,0.0,0.0,0.0,0.0,0.0,0.0,0.0,0.0,0.0,0.0,0.0,0.0,0.0,0.0,0.0,0.0,0.0,0.0,0.0,0.0,0.0,0.0,0.0,0.0,0.0,0.0,0.0,0.0,0.0,0.0,0.0,0.0,0.0,0.0,0.0,0.0,0.0,0.0,0.0,0.0,0.0,0.0,0.0,0.0,-0.2211,-0.7346,-0.7678,-0.7684,-0.778,-0.915,-1.0526,-1.2094,0.0,0.0,0.0,0.0,0.0,0.0,0.0,0.0,0.0,0.0,0.0,0.0,0.0,0.0,0.0,0.0,0.0,0.0,0.0,0.0,0.0,0.0,0.0,0.0,0.0,0.0,0.0,0.0,0.0,0.0,0.0,0.0,0.0,0.0,0.0,0.0,0.0,0.0,0.0,0.0,0.0,0.0,0.0,0.0,0.0,0.0,0.0,0.0,0.0,0.0,0.0,0.0,0.0,0.0,0.0,0.0,0.0,0.0,0.0,0.0,0.0,0.0,0.0,0.0,0.0,0.0,0.0,0.0,0.0,0.0,0.0,0.0,0.0,0.0,0.0,0.0,0.0,0.0,0.0,0.0,0.0,0.0,0.0,0.0,0.0,0.0,0.0,0.0,0.0,0.0,0.0,0.0,0.0,0.0,0.0,0.0,0.0,0.0,0.0,0.0,0.0,0.0,0.0,0.0,-0.0935,-0.301,-0.3149,-0.4744,-0.8289,-1.0942,-1.2462,0.0,0.0,0.0,0.0,0.0,0.0,0.0,0.0,0.0,0.0,0.0,0.0,0.0,0.0,0.0,0.0,0.0,0.0,0.0,0.0,0.0,0.0,0.0,0.0,0.0,0.0,0.0,0.0,0.0,0.0,0.0,0.0,0.0,0.0,0.0,0.0,0.0,0.0,0.0,0.0,0.0,0.0,0.0,0.0,0.0,0.0,0.0,0.0,0.0,0.0,0.0,0.0,0.0,0.0,0.0,0.0,0.0,0.0,0.0,0.0,0.0,0.0,0.0,0.0,0.0,0.0,0.0,0.0,0.0,0.0,0.0,0.0,0.0,0.0,0.0,0.0,0.0,0.0,0.0,0.0,0.0,0.0,0.0,0.0,0.0,0.0,0.0,0.0,0.0,0.0,0.0,0.0,0.0,0.0,0.0,0.0,0.0,0.0,0.0,0.0,0.0,0.0,0.0,0.0,0.0,-0.0914,-0.3092,-0.3977,0.0,0.0,0.0,0.0,0.0,0.0,0.0,0.0,-1.2786,-1.2576,0.0,0.0,0.0,0.0,0.0,0.0,0.0,0.0,0.0,0.0,0.0,0.0,0.0,0.0,0.0,0.0,0.0,0.0,0.0,0.0,0.0,0.0,0.0,0.0,0.0,0.0,0.0,0.0,0.0,0.0,0.0,0.0,0.0,0.0,0.0,0.0,0.0,0.0,0.0,0.0,0.0,0.0,0.0,0.0,0.0,0.0,0.0,0.0,0.0,0.0,0.0,0.0,0.0,0.0,0.0,0.0,0.0,0.0,0.0,0.0,0.0,0.0,0.0,0.0,0.0,0.0,0.0,0.0,0.0,0.0,0.0,0.0,0.0,0.0,0.0,0.0,0.0,0.0,0.0,0.0,0.0,0.0,0.0,0.0,0.0,0.0,0.0,0.0,0.0,0.0,0.0,0.0,0.0,0.0,0.0,0.0,0.0,0.0,0.0,-0.1775,-0.561,-0.7899,-1.0086,-1.2589,-1.3277,-1.3824,-1.4224,-1.4224,-1.4434,-1.4808,-1.3295,-1.2935,0.0,0.0,0.0,0.0,0.0,0.0,0.0,0.0,0.0,0.0,0.0,0.0,0.0,0.0,0.0,0.0,0.0,0.0,0.0,0.0,0.0,0.0,0.0,0.0,0.0,0.0,0.0,0.0,0.0,0.0,0.0,0.0,0.0,0.0,0.0,0.0,0.0,0.0,0.0,0.0,0.0,0.0,0.0,0.0,0.0,0.0,0.0,0.0,0.0,0.0,0.0,0.0,0.0,0.0,0.0,0.0,0.0,0.0,0.0,0.0,0.0,0.0,0.0,0.0,0.0,0.0,0.0,0.0,0.0,0.0,0.0,0.0,0.0,0.0,0.0,0.0,0.0,0.0,0.0,0.0,0.0,0.0,0.0,0.0,0.0,0.0,0.0,0.0,0.0,0.0,0.0,0.0,0.0,0.0,0.0,0.0,0.0,0.0,0.0,-0.1893,-0.6182,-0.9629,-1.1496,-1.17,-1.3468,-1.4686,-1.5153,-1.5153,-1.5262,-1.5445,-1.4767,-1.4462,0.0,0.0,0.0,0.0,0.0,0.0,0.0,0.0,0.0,0.0,0.0,0.0,0.0,0.0,0.0,0.0,0.0,0.0,0.0,0.0,0.0,0.0,0.0,0.0,0.0,0.0,0.0,0.0,0.0,0.0,0.0,0.0,0.0,0.0,0.0,0.0,0.0,0.0,0.0,0.0,0.0,0.0,0.0,0.0,0.0,0.0,0.0,0.0,0.0,0.0,0.0,0.0,0.0,0.0,0.0,0.0,0.0,0.0,0.0,0.0,0.0,0.0,0.0,0.0,0.0,0.0,0.0,0.0,0.0,0.0,0.0,0.0,0.0,0.0,0.0,0.0,0.0,0.0,0.0,0.0,0.0,0.0,0.0,0.0,0.0,0.0,0.0,0.0,0.0,0.0,0.0,0.0,0.0,0.0,0.0,0.0,0.0,0.0,0.0,-0.0974,-0.3114,-0.9269,-1.2521,-1.2543,-1.4347,-1.5381,-1.5635,-1.571,-1.5784,-1.5859,-1.5784,-1.5547,0.0,0.0,0.0,0.0,0.0,0.0,0.0,0.0,0.0,0.0,0.0,0.0,0.0,0.0,0.0,0.0,0.0,0.0,0.0,0.0,0.0,0.0,0.0,0.0,0.0,0.0,0.0,0.0,0.0,0.0,0.0,0.0,0.0,0.0,0.0,0.0,0.0,0.0,0.0,0.0,0.0,0.0,0.0,0.0,0.0,0.0,0.0,0.0,0.0,0.0,0.0,0.0,0.0,0.0,0.0,0.0,0.0,0.0,0.0,0.0,0.0,0.0,0.0,0.0,0.0,0.0,0.0,0.0,0.0,0.0,0.0,0.0,0.0,0.0,0.0,0.0,0.0,0.0,0.0,0.0,0.0,0.0,0.0,0.0,0.0,0.0,0.0,0.0,0.0,0.0,0.0,0.0,0.0,0.0,0.0,0.0,0.0,0.0,0.0,0.0,0.0,-0.6707,-1.0806,-1.1936,-1.4372,-1.5632,-1.5512,-1.6031,-1.63,-1.63,-1.651,-1.6307,0.0,0.0,0.0,0.0,0.0,0.0,0.0,0.0,0.0,0.0,0.0,0.0,0.0,0.0,0.0,0.0,0.0,0.0,0.0,0.0,0.0,0.0,0.0,0.0,0.0,0.0,0.0,0.0,0.0,0.0,0.0,0.0,0.0,0.0,0.0,0.0,0.0,0.0,0.0,0.0,0.0,0.0,0.0,0.0,0.0,0.0,0.0,0.0,0.0,0.0,0.0,0.0,0.0,0.0,0.0,0.0,0.0,0.0,0.0,0.0,0.0,0.0,0.0,0.0,0.0,0.0,0.0,0.0,0.0,0.0,0.0,0.0,0.0,0.0,0.0,0.0,0.0,0.0,0.0,0.0,0.0,0.0,0.0,0.0,0.0,0.0,0.0,0.0,0.0,0.0,0.0,0.0,0.0,0.0,0.0,0.0,0.0,0.0,0.0,0.0,0.0,-0.0842,-0.2943,-0.631,-1.252,-1.5145,-1.3846,-1.599,-1.7066,-1.7066,-1.6971,-1.668,0.0,0.0,0.0,0.0,0.0,0.0,0.0,0.0,0.0,0.0,0.0,0.0,0.0,0.0,0.0,0.0,0.0,0.0,0.0,0.0,0.0,0.0,0.0,0.0,0.0,0.0,0.0,0.0,0.0,0.0,0.0,0.0,0.0,0.0,0.0,0.0,0.0,0.0,0.0,0.0,0.0,0.0,0.0,0.0,0.0,0.0,0.0,0.0,0.0,0.0,0.0,0.0,0.0,0.0,0.0,0.0,0.0,0.0,0.0,0.0,0.0,0.0,0.0,0.0,0.0,0.0,0.0,0.0,0.0,0.0,0.0,0.0,0.0,0.0,0.0,0.0,0.0,0.0,0.0,0.0,0.0,0.0,0.0,0.0,0.0,0.0,0.0,0.0,0.0,0.0,0.0,0.0,0.0,0.0,0.0,0.0,0.0,0.0,0.0,0.0,0.0,0.0,-0.1067,-0.3211,-0.945,-1.3129,-1.3541,-1.62,-1.7283,-1.7195,-1.7222,-1.7087,0.0,0.0,0.0,0.0,0.0,0.0,0.0,0.0,0.0,0.0,0.0,0.0,0.0,0.0,0.0,0.0,0.0,0.0,0.0,0.0,0.0,0.0,0.0,0.0,0.0,0.0,0.0,0.0,0.0,0.0,0.0,0.0,0.0,0.0,0.0,0.0,0.0,0.0,0.0,0.0,0.0,0.0,0.0,0.0,0.0,0.0,0.0,0.0,0.0,0.0,0.0,0.0,0.0,0.0,0.0,0.0,0.0,0.0,0.0,0.0,0.0,0.0,0.0,0.0,0.0,0.0,0.0,0.0,0.0,0.0,0.0,0.0,0.0,0.0,0.0,0.0,0.0,0.0,0.0,0.0,0.0,0.0,0.0,0.0,0.0,0.0,0.0,0.0,0.0,0.0,0.0,0.0,0.0,0.0,0.0,0.0,0.0,0.0,0.0,0.0,0.0,0.0,-0.0653,-0.1749,-0.7622,-1.1095,-1.174,-1.5741,-1.7047,-1.6511,-1.727,-1.748,0.0,0.0,0.0,0.0,0.0,0.0,0.0,0.0,0.0,0.0,0.0,0.0,0.0,0.0,0.0,0.0,0.0,0.0,0.0,0.0,0.0,0.0,0.0,0.0,0.0,0.0,0.0,0.0,0.0,0.0,0.0,0.0,0.0,0.0,0.0,0.0,0.0,0.0,0.0,0.0,0.0,0.0,0.0,0.0,0.0,0.0,0.0,0.0,0.0,0.0,0.0,0.0,0.0,0.0,0.0,0.0,0.0,0.0,0.0,0.0,0.0,0.0,0.0,0.0,0.0,0.0,0.0,0.0,0.0,0.0,0.0,0.0,0.0,0.0,0.0,0.0,0.0,0.0,0.0,0.0,0.0,0.0,0.0,0.0,0.0,0.0,0.0,0.0,0.0,0.0,0.0,0.0,0.0,0.0,0.0,0.0,0.0,0.0,0.0,0.0,0.0,0.0,-0.0681,-0.1813,-0.7631,-0.9605,-0.7384,-1.4503,-1.6722,-1.4503,-1.6729,-1.7846,0.0,0.0,0.0,0.0,0.0,0.0,0.0,0.0,0.0,0.0,0.0,0.0,0.0,0.0,0.0,0.0,0.0,0.0,0.0,0.0,0.0,0.0,0.0,0.0,0.0,0.0,0.0,0.0,0.0,0.0,0.0,0.0,0.0,0.0,0.0,0.0,0.0,0.0,0.0,0.0,0.0,0.0,0.0,0.0,0.0,0.0,0.0,0.0,0.0,0.0,0.0,0.0,0.0,0.0,0.0,0.0,0.0,0.0,0.0,0.0,0.0,0.0,0.0,0.0,0.0,0.0,0.0,0.0,0.0,0.0,0.0,0.0,0.0,0.0,0.0,0.0,0.0,0.0,0.0,0.0,0.0,0.0,0.0,0.0,0.0,0.0,0.0,0.0,0.0,0.0,0.0,0.0,0.0,0.0,0.0,0.0,0.0,0.0,0.0,0.0,0.0,0.0,-0.0229,-0.0687,-0.4102,-0.6594,-0.7971,-1.3182,-1.5208,-1.4532,-1.6939,-1.8023,0.0,0.0,0.0,0.0,0.0,0.0,0.0,0.0,0.0,0.0,0.0,0.0,0.0,0.0,0.0,0.0,0.0,0.0,0.0,0.0,0.0,0.0,0.0,0.0,0.0,0.0,0.0,0.0,0.0,0.0,0.0,0.0,0.0,0.0,0.0,0.0,0.0,0.0,0.0,0.0,0.0,0.0,0.0,0.0,0.0,0.0,0.0,0.0,0.0,0.0,0.0,0.0,0.0,0.0,0.0,0.0,0.0,0.0,0.0,0.0,0.0,0.0,0.0,0.0,0.0,0.0,0.0,0.0,0.0,0.0,0.0,0.0,0.0,0.0,0.0,0.0,0.0,0.0,0.0,0.0,0.0,0.0,0.0,0.0,0.0,0.0,0.0,0.0,0.0,0.0,0.0,0.0,0.0,0.0,0.0,0.0,0.0,0.0,0.0,0.0,0.0,0.0,0.0,0.0,-0.207,-0.4359,-0.6658,-1.1224,-1.283,-1.1908,-1.4343,-1.5428,0.0,0.0,0.0,0.0,0.0,0.0,0.0,0.0,0.0,0.0,0.0,0.0,0.0,0.0,0.0,0.0,0.0,0.0,0.0,0.0,0.0,0.0,0.0,0.0,0.0,0.0,0.0,0.0,0.0,0.0,0.0,0.0,0.0,0.0,0.0,0.0,0.0,0.0,0.0,0.0,0.0,0.0,0.0,0.0,0.0,0.0,0.0,0.0,0.0,0.0,0.0,0.0,0.0,0.0,0.0,0.0,0.0,0.0,0.0,0.0,0.0,0.0,0.0,0.0,0.0,0.0,0.0,0.0,0.0,0.0,0.0,0.0,0.0,0.0,0.0,0.0,0.0,0.0,0.0,0.0,0.0,0.0,0.0,0.0,0.0,0.0,0.0,0.0,0.0,0.0,0.0,0.0,0.0,0.0,0.0,0.0,0.0,0.0,0.0,0.0,0.0,0.0,0.0,0.0,-0.1154,-0.253,-0.3684,-0.8263,-0.9407,-0.7349,-0.9629,-1.0724,0.0,0.0,0.0,0.0,0.0,0.0,0.0,0.0,0.0,0.0,0.0,0.0,0.0,0.0,0.0,0.0,0.0,0.0,0.0,0.0,0.0,0.0,0.0,0.0,0.0,0.0,0.0,0.0,0.0,0.0,0.0,0.0,0.0,0.0,0.0,0.0,0.0,0.0,0.0,0.0,0.0,0.0,0.0,0.0,0.0,0.0,0.0,0.0,0.0,0.0,0.0,0.0,0.0,0.0,0.0,0.0,0.0,0.0,0.0,0.0,0.0,0.0,0.0,0.0,0.0,0.0,0.0,0.0,0.0,0.0,0.0,0.0,0.0,0.0,0.0,0.0,0.0,0.0,0.0,0.0,0.0,0.0,0.0,0.0,0.0,0.0,0.0,0.0,0.0,0.0,0.0,0.0,0.0,0.0,0.0,0.0,0.0,0.0,0.0,0.0,0.0,0.0,0.0,0.0,-0.0236,-0.1648,-0.3748,-0.4905,-0.6303,-0.7474,-0.974,-1.1045,0.0,0.0,0.0,0.0,0.0,0.0,0.0,0.0,0.0,0.0,0.0,0.0,0.0,0.0,0.0,0.0,0.0,0.0,0.0,0.0,0.0,0.0,0.0,0.0,0.0,0.0,0.0,0.0,0.0,0.0,0.0,0.0,0.0,0.0,0.0,0.0,0.0,0.0,0.0,0.0,0.0,0.0,0.0,0.0,0.0,0.0,0.0,0.0,0.0,0.0,0.0,0.0,0.0,0.0,0.0,0.0,0.0,0.0,0.0,0.0,0.0,0.0,0.0,0.0,0.0,0.0,0.0,0.0,0.0,0.0,0.0,0.0,0.0,0.0,0.0,0.0,0.0,0.0,0.0,0.0,0.0,0.0,0.0,0.0,0.0,0.0,0.0,0.0,0.0,0.0,0.0,0.0,0.0,0.0,0.0,0.0,0.0,0.0,0.0,0.0,0.0,0.0,0.0,0.0,0.0,-0.0947,-0.3064,-0.3542,-0.4484,-0.5886,-0.7281,-0.7915,0.0,0.0,0.0,0.0,0.0,0.0,0.0,0.0,0.0,0.0,0.0,0.0,0.0,0.0,0.0,0.0,0.0,0.0,0.0,0.0,0.0,0.0,0.0,0.0,0.0,0.0,0.0,0.0,0.0,0.0,0.0,0.0,0.0,0.0,0.0,0.0,0.0,0.0,0.0,0.0,0.0,0.0,0.0,0.0,0.0,0.0,0.0,0.0,0.0,0.0,0.0,0.0,0.0,0.0,0.0,0.0,0.0,0.0,0.0,0.0,0.0,0.0,0.0,0.0,0.0,0.0,0.0,0.0,0.0,0.0,0.0,0.0,0.0,0.0,0.0,0.0,0.0,0.0,0.0,0.0,0.0,0.0,0.0,0.0,0.0,0.0,0.0,0.0,0.0,0.0,0.0,0.0,0.0,0.0,0.0,0.0,0.0,0.0,0.0,0.0,0.0,0.0,0.0,0.0,0.0,-0.071,-0.189,-0.3095,-0.381,-0.3782,-0.381,-0.3779,0.0,0.0,0.0,0.0,0.0,0.0,0.0,0.0,0.0,0.0,0.0,0.0,0.0,0.0,0.0,0.0,0.0,0.0,0.0,0.0,0.0,0.0,0.0,0.0,0.0,0.0,0.0,0.0,0.0,0.0,0.0,0.0,0.0,0.0,0.0,0.0,0.0,0.0,0.0,0.0,0.0,0.0,0.0,0.0,0.0,0.0,0.0,0.0,0.0,0.0,0.0,0.0,0.0,0.0,0.0,0.0,0.0,0.0,0.0,0.0,0.0,0.0,0.0,0.0,0.0,0.0,0.0,0.0,0.0,0.0,0.0,0.0,0.0,0.0,0.0,0.0,0.0,0.0,0.0,0.0,0.0,0.0,0.0,0.0,0.0,0.0,0.0,0.0,0.0,0.0,0.0,0.0,0.0,0.0,0.0,0.0,0.0,0.0,0.0,0.0,0.0,0.0,0.0,0.0,0.0,-0.0726,-0.1922,-0.337,-0.3851,-0.3844,-0.3848,-0.3831,0.0,0.0,0.0,0.0,0.0,0.0,0.0,0.0,0.0,0.0,0.0,0.0,0.0,0.0,0.0,0.0,0.0,0.0,0.0,0.0,0.0,0.0,0.0,0.0,0.0,0.0,0.0,0.0,0.0,0.0,0.0,0.0,0.0,0.0,0.0,0.0,0.0,0.0,0.0,0.0,0.0,0.0,0.0,0.0,0.0,0.0,0.0,0.0,0.0,0.0,0.0,0.0,0.0,0.0,0.0,0.0,0.0,0.0,0.0,0.0,0.0,0.0,0.0,0.0,0.0,0.0,0.0,0.0,0.0,0.0,0.0,0.0,0.0,0.0,0.0,0.0,0.0,0.0,0.0,0.0,0.0,0.0,0.0,0.0,0.0,0.0,0.0,0.0,0.0,0.0,0.0,0.0,0.0,0.0,0.0,0.0,0.0,0.0,0.0,0.0,0.0,0.0,0.0,0.0,0.0,-0.0242,-0.0965,-0.2909,-0.3876,-0.3862,-0.3876,-0.3859,0.0,0.0,0.0,0.0,0.0,0.0,0.0,0.0,0.0,0.0,0.0,0.0,0.0,0.0,0.0,0.0,0.0,0.0,0.0,0.0,0.0,0.0,0.0,0.0,0.0,0.0,0.0,0.0,0.0,0.0,0.0,0.0,0.0,0.0,0.0,0.0,0.0,0.0,0.0,0.0,0.0,0.0,0.0,0.0,0.0,0.0,0.0,0.0,0.0,0.0,0.0,0.0,0.0,0.0,0.0,0.0,0.0,0.0,0.0,0.0,0.0,0.0,0.0,0.0,0.0,0.0,0.0,0.0,0.0,0.0,0.0,0.0,0.0,0.0,0.0,0.0,0.0,0.0,0.0,0.0,0.0,0.0,0.0,0.0,0.0,0.0,0.0,0.0,0.0,0.0,0.0,0.0,0.0,0.0,0.0,0.0,0.0,0.0,0.0,0.0,0.0,0.0,0.0,0.0,0.0,0.0,-0.0,-0.2444,-0.3422,-0.3397,-0.368,-0.3907,0.0,0.0,0.0,0.0,0.0,0.0,0.0,0.0,0.0,0.0,0.0,0.0,0.0,0.0,0.0,0.0,0.0,0.0,0.0,0.0,0.0,0.0,0.0,0.0,0.0,0.0,0.0,0.0,0.0,0.0,0.0,0.0,0.0,0.0,0.0,0.0,0.0,0.0,0.0,0.0,0.0,0.0,0.0,0.0,0.0,0.0,0.0,0.0,0.0,0.0,0.0,0.0,0.0,0.0,0.0,0.0,0.0,0.0,0.0,0.0,0.0,0.0,0.0,0.0,0.0,0.0,0.0,0.0,0.0,0.0,0.0,0.0,0.0,0.0,0.0,0.0,0.0,0.0,0.0,0.0,0.0,0.0,0.0,0.0,0.0,0.0,0.0,0.0,0.0,0.0,0.0,0.0,0.0,0.0,0.0,0.0,0.0,0.0,0.0,0.0,0.0,0.0,0.0,0.0,0.0,0.0,-0.0,-0.149,-0.2233,-0.2217,-0.3526,-0.4023,0.0,0.0,0.0,0.0,0.0,0.0,0.0,0.0,0.0,0.0,0.0,0.0,0.0,0.0,0.0,0.0,0.0,0.0,0.0,0.0,0.0,0.0,0.0,0.0,0.0,0.0,0.0,0.0,0.0,0.0,0.0,0.0,0.0,0.0,0.0,0.0,0.0,0.0,0.0,0.0,0.0,0.0,0.0,0.0,0.0,0.0,0.0,0.0,0.0,0.0,0.0,0.0,0.0,0.0,0.0,0.0,0.0,0.0,0.0,0.0,0.0,0.0,0.0,0.0,0.0,0.0,0.0,0.0,0.0,0.0,0.0,0.0,0.0,0.0,0.0,0.0,0.0,0.0,0.0,0.0,0.0,0.0,0.0,0.0,0.0,0.0,0.0,0.0,0.0,0.0,0.0,0.0,0.0,0.0,0.0,0.0,0.0,0.0,0.0,0.0,0.0,0.0,0.0,0.0,0.0,0.0,-0.0,-0.227,-0.3277,-0.3254,-0.3045,-0.3297,0.0,0.0,0.0,0.0,0.0,0.0,0.0,0.0,0.0,0.0,0.0,0.0,0.0,0.0,0.0,0.0,0.0,0.0,0.0,0.0,0.0,0.0,0.0,0.0,0.0,0.0,0.0,0.0,0.0,0.0,0.0,0.0,0.0,0.0,0.0,0.0,0.0,0.0,0.0,0.0,0.0,0.0,0.0,0.0,0.0,0.0,0.0,0.0,0.0,0.0,0.0,0.0,0.0,0.0,0.0,0.0,0.0,0.0,0.0,0.0,0.0,0.0,0.0,0.0,0.0,0.0,0.0,0.0,0.0,0.0,0.0,0.0,0.0,0.0,0.0,0.0,0.0,0.0,0.0,0.0,0.0,0.0,0.0,0.0,0.0,0.0,0.0,0.0,0.0,0.0,0.0,0.0,0.0,0.0,0.0,0.0,0.0,0.0,0.0,0.0,0.0,0.0,0.0,0.0,0.0,0.0,-0.0,-0.2035,-0.3053,-0.3535,-0.2555,-0.2818,0.0,0.0,0.0,0.0,0.0,0.0,0.0,0.0,0.0,0.0,0.0,0.0,0.0,0.0,0.0,0.0,0.0,0.0,0.0,0.0,0.0,0.0,0.0,0.0,0.0,0.0,0.0,0.0,0.0,0.0,0.0,0.0,0.0,0.0,0.0,0.0,0.0,0.0,0.0,0.0,0.0,0.0,0.0,0.0,0.0,0.0,0.0,0.0,0.0,0.0,0.0,0.0,0.0,0.0,0.0,0.0,0.0,0.0,0.0,0.0,0.0,0.0,0.0,0.0,0.0,0.0,0.0,0.0,0.0,0.0,0.0,0.0,0.0,0.0,0.0,0.0,0.0,0.0,0.0,0.0,0.0,0.0,0.0,0.0,0.0,0.0,0.0,0.0,0.0,0.0,0.0,0.0,0.0,0.0,0.0,0.0,0.0,0.0,0.0,0.0,0.0,0.0,0.0,0.0,0.0,0.0,-0.0,-0.0,-0.0763,-0.2021,-0.2067,-0.2871,0.0,0.0,0.0,0.0,0.0,0.0,0.0,0.0,0.0,0.0,0.0,0.0,0.0,0.0,0.0,0.0,0.0,0.0,0.0,0.0,0.0,0.0,0.0,0.0,0.0,0.0,0.0,0.0,0.0,0.0,0.0,0.0,0.0,0.0,0.0,0.0,0.0,0.0,0.0,0.0,0.0,0.0,0.0,0.0,0.0,0.0,0.0,0.0,0.0,0.0,0.0,0.0,0.0,0.0,0.0,0.0,0.0,0.0,0.0,0.0,0.0,0.0,0.0,0.0,0.0,0.0,0.0,0.0,0.0,0.0,0.0,0.0,0.0,0.0,0.0,0.0,0.0,0.0,0.0,0.0,0.0,0.0,0.0,0.0,0.0,0.0,0.0,0.0,0.0,0.0,0.0,0.0,0.0,0.0,0.0,0.0,0.0,0.0,0.0,0.0,0.0,0.0,0.0,0.0,0.0,0.0,0.0,0.0,-0.0259,-0.0775,-0.0776,-0.1295,0.0,0.0,0.0,0.0,0.0,0.0,0.0,0.0,0.0,0.0,0.0,0.0,0.0,0.0,0.0,0.0,0.0,0.0,0.0,0.0,0.0,0.0,0.0,0.0,0.0,0.0,0.0,0.0,0.0,0.0,0.0,0.0,0.0,0.0,0.0,0.0,0.0,0.0,0.0,0.0,0.0,0.0,0.0,0.0,0.0,0.0,0.0,0.0,0.0,0.0,0.0,0.0,0.0,0.0,0.0,0.0,0.0,0.0,0.0,0.0,0.0,0.0,0.0,0.0,0.0,0.0,0.0,0.0,0.0,0.0,0.0,0.0,0.0,0.0,0.0,0.0,0.0,0.0,0.0,0.0,0.0,0.0,0.0,0.0,0.0,0.0,0.0,0.0,0.0,0.0,0.0,0.0,0.0,0.0,0.0,0.0,0.0,0.0,0.0,0.0,0.0,0.0,0.0,0.0,0.0,0.0,0.0,0.0,0.0,0.0,0.0,-0.052,0.0,0.0,0.0,0.0,0.0,0.0,0.0,0.0,0.0,0.0,0.0,0.0,0.0,0.0,0.0,0.0,0.0,0.0,0.0,0.0,0.0,0.0,0.0,0.0,0.0,0.0,0.0,0.0,0.0,0.0,0.0,0.0,0.0,0.0,0.0,0.0,0.0,0.0,0.0,0.0,0.0,0.0,0.0,0.0,0.0,0.0,0.0,0.0,0.0,0.0,0.0,0.0,0.0,0.0,0.0,0.0,0.0,0.0,0.0,0.0,0.0,0.0,0.0,0.0,0.0,0.0,0.0,0.0,0.0,0.0,0.0,0.0,0.0,0.0,0.0,0.0,0.0,0.0,0.0,0.0,0.0,0.0,0.0,0.0,0.0,0.0,0.0,0.0,0.0,0.0,0.0,0.0,0.0,0.0,0.0,0.0,0.0,0.0,0.0,0.0,0.0,0.0,0.0,0.0,0.0,0.0,0.0,0.0,0.0,0.0,0.0,0.0,0.0,0.0,0.0,0.0,0.0,0.0,0.0,0.0,0.0,0.0,0.0,0.0,0.0,0.0,0.0,0.0,0.0,0.0,0.0,0.0,0.0,0.0,0.0,0.0,0.0,0.0,0.0,0.0,0.0,0.0,0.0,0.0,0.0,0.0,0.0,0.0,0.0,0.0,0.0,0.0,0.0,0.0,0.0,0.0,0.0,0.0,0.0,0.0,0.0,0.0,0.0,0.0,0.0,0.0,0.0,0.0,0.0,0.0,0.0,0.0,0.0,0.0,0.0,0.0,0.0,0.0,0.0,0.0,0.0,0.0,0.0,0.0,0.0,0.0,0.0,0.0,0.0,0.0,0.0,0.0,0.0,0.0,0.0,0.0,0.0,0.0,0.0,0.0,0.0,0.0,0.0,0.0,0.0,0.0,0.0,0.0,0.0,0.0,0.0,0.0,0.0,0.0,0.0,0.0,0.0,0.0,0.0,0.0,0.0,0.0,0.0,0.0,0.0,0.0,0.0,0.0,0.0,0.0,0.0,0.0,0.0,0.0,0.0,0.0,0.0,0.0,0.0,0.0,0.0,0.0,0.0,0.0,0.0,0.0,0.0,0.0,0.0,0.0,0.0,0.0,0.0,0.0,0.0,0.0,0.0,0.0,0.0,0.0,0.0,0.0,0.0,0.0,0.0,0.0,0.0,0.0,0.0,0.0,0.0,0.0,0.0,0.0,0.0,0.0,0.0,0.0,0.0,0.0,0.0,0.0,0.0,0.0,0.0,0.0,0.0,0.0,0.0,0.0,0.0,0.0,0.0,0.0,0.0,0.0,0.0,0.0,0.0,0.0,0.0,0.0,0.0,0.0,0.0,0.0,0.0,0.0,0.0,0.0,0.0,0.0,0.0,0.0,0.0,0.0,0.0,0.0,0.0,0.0,0.0,0.0,0.0,0.0,0.0,0.0,0.0,0.0,0.0,0.0,0.0,0.0,0.0,0.0,0.0,0.0,0.0,0.0,0.0,0.0,0.0,0.0,0.0,0.0,0.0,0.0,0.0,0.0,0.0,0.0,0.0,0.0,0.0,0.0,0.0,0.0,0.0,0.0,0.0,0.0,0.0,0.0,0.0,0.0,0.0,0.0,0.0,0.0,0.0,0.0,0.0,0.0,0.0,0.0,0.0,0.0,0.0,0.0,0.0,0.0,0.0,0.0,0.0,0.0,0.0,0.0,0.0,0.0,0.0,0.0,0.0,0.0,0.0,0.0,0.0,0.0,0.0,0.0,0.0,0.0,0.0,0.0,0.0,0.0,0.0,0.0,0.0,0.0,0.0,0.0,0.0,0.0,0.0,0.0,0.0,0.0,0.0,0.0,0.0,0.0,0.0,0.0,0.0,0.0,0.0,0.0,0.0,0.0,0.0,0.0,0.0,0.0,0.0,0.0,0.0,0.0,0.0,0.0,0.0,0.0,0.0,0.0,0.0,0.0,0.0,0.0,0.0,0.0,0.0,0.0,0.0,0.0,0.0,0.0,0.0,0.0,0.0,0.0,0.0,0.0,0.0,0.0,0.0,0.0,0.0,0.0,0.0,0.0,0.0,0.0,0.0,0.0,0.0,0.0,0.0,0.0,0.0,0.0,0.0,0.0,0.0,0.0,0.0,0.0,0.0,0.0,0.0,0.0,0.0,0.0,0.0,0.0,0.0,0.0,0.0,0.0,0.0,0.0,0.0,0.0,0.0,0.0,0.0,0.0,0.0,0.0,0.0,0.0,0.0,0.0,0.0,0.0,0.0,0.0,0.0,0.0,0.0,0.0,0.0,0.0,0.0,0.0,0.0,0.0,0.0,0.0,0.0,0.0,0.0,0.0,0.0,0.0,0.0,0.0,0.0,0.0,0.0,0.0,0.0,0.0,0.0,0.0,0.0,0.0,0.0,0.0,0.0,0.0,0.0,0.0,0.0,0.0,0.0,0.0,0.0,0.0,0.0,0.0,0.0,0.0,0.0,0.0,0.0,0.0,0.0,0.0,0.0,0.0,0.0,0.0,0.0,0.0,0.0,0.0,0.0,0.0,0.0,0.0,0.0,0.0,0.0,0.0,0.0,0.0,0.0,0.0,0.0,0.0,0.0,0.0,0.0,0.0,0.0,0.0,0.0,0.0,0.0,0.0,0.0,0.0,0.0,0.0,0.0,0.0,0.0,0.0,0.0,0.0,0.0,0.0,0.0,0.0,0.0,0.0,0.0,0.0,0.0,0.0,0.0,0.0,0.0,0.0,0.0,0.0,0.0,0.0,0.0,0.0,0.0,0.0,0.0,0.0,0.0,0.0,0.0,0.0,0.0,0.0,0.0,0.0,0.0,0.0,0.0,0.0,0.0,0.0,0.0,0.0,0.0,0.0,0.0,0.0,0.0,0.0,0.0,0.0,0.0,0.0,0.0,0.0,0.0,0.0,0.0,0.0,0.0,0.0,0.0,0.0,0.0,0.0,0.0,0.0,0.0,0.0,0.0,0.0,0.0,0.0,0.0,0.0,0.0,0.0,0.0,0.0,0.0,0.0,0.0,0.0,0.0,0.0,0.0,0.0,0.0,0.0,0.0,0.0,0.0,0.0,0.0,0.0,0.0,0.0,0.0,0.0,0.0,0.0,0.0,0.0,0.0,0.0,0.0,0.0,0.0,0.0,0.0,0.0,0.0,0.0,0.0,0.0,0.0,0.0,0.0,0.0,0.0,0.0,0.0,0.0,0.0,0.0,0.0,0.0,0.0,0.0,0.0,0.0,0.0,0.0,0.0,0.0,0.0,0.0,0.0,0.0,0.0,0.0,0.0,0.0,0.0,0.0,0.0,0.0,0.0,0.0,0.0,0.0,0.0,0.0,0.0,0.0,0.0,0.0,0.0,0.0,0.0,0.0,0.0,0.0,0.0,0.0,0.0,0.0,0.0,0.0,0.0,0.0,0.0,0.0,0.0,0.0,0.0,0.0,0.0,0.0,0.0,0.0,0.0,0.0,0.0,0.0,0.0,0.0,0.0,0.0,0.0,0.0,0.0,0.0,0.0,0.0,0.0,0.0,0.0,0.0,0.0,0.0,0.0,0.0,0.0,0.0,0.0,0.0,0.0,0.0,0.0,0.0,0.0,0.0,0.0,0.0,0.0,0.0,0.0,0.0,0.0,0.0,0.0,0.0,0.0,0.0,0.0,0.0,0.0,0.0,0.0,0.0,0.0,0.0,0.0,0.0,0.0,0.0,0.0,0.0,0.0,0.0,0.0,0.0,0.0,0.0,0.0,0.0,0.0,0.0,0.0,0.0,0.0,0.0,0.0,0.0,0.0,0.0,0.0,0.0,0.0,0.0,0.0,0.0,0.0,0.0,0.0,0.0,0.0,0.0,0.0,0.0,0.0,0.0,0.0,0.0,0.0,0.0,0.0,0.0,0.0,0.0,0.0,0.0,0.0,0.0,0.0,0.0,0.0,0.0,0.0,0.0,0.0,0.0,0.0,0.0,0.0,0.0,0.0,0.0,0.0,0.0,0.0,0.0,0.0,0.0,0.0,0.0,0.0,0.0,0.0,0.0,0.0,0.0,0.0,0.0,0.0,0.0,0.0,0.0,0.0,0.0,0.0,0.0,0.0,0.0,0.0,0.0,0.0,0.0,0.0,0.0,0.0,0.0,0.0,0.0,0.0,0.0,0.0,0.0,0.0,0.0,0.0,0.0,0.0,0.0,0.0,0.0,0.0,0.0,0.0,0.0,0.0,0.0,0.0,0.0,0.0,0.0,0.0,0.0,0.0,0.0,0.0,0.0,0.0,0.0,0.0,0.0,0.0,0.0,0.0,0.0,0.0,0.0,0.0,0.0,0.0,0.0,0.0,0.0,0.0,0.0,0.0,0.0,0.0,0.0,0.0,0.0,0.0,0.0,0.0,0.0,0.0,0.0,0.0,0.0,0.0,0.0,0.0,0.0,0.0,0.0,0.0,0.0,0.0,0.0,0.0,0.0,0.0,0.0,0.0,0.0,0.0,0.0,0.0,0.0,0.0,0.0,0.0,0.0,0.0,0.0,0.0,0.0,0.0,0.0,0.0,0.1061,0.0,0.0,0.0,0.0,0.0,0.0,0.0,0.0,0.0,0.0,0.0,0.0,0.0,0.0,0.0,0.0,0.0,0.0,0.0,0.0,0.0,0.0,0.0,0.0,0.0,0.0,0.0,0.0,0.0,0.0,0.0,0.0,0.0,0.0,0.0,0.0,0.0,0.0,0.0,0.0,0.0,0.0,0.0,0.0,0.0,0.0,0.0,0.0,0.0,0.0,0.0,0.0,0.0,0.0,0.0,0.0,0.0,0.0,0.0,0.0,0.0,0.0,0.0,0.0,0.0,0.0,0.0,0.0,0.0,0.0,0.0,0.0,0.0,0.0,0.0,0.0,0.0,0.0,0.0,0.0,0.0,0.0,0.0,0.0,0.0,0.0,0.0,0.0,0.0,0.0,0.0,0.0,0.0,0.0,0.0,0.0,0.0,0.0,0.0,0.0,0.0,0.0,0.0,0.0,0.0,0.0,0.0,0.0,0.3139,0.0264,0.2374,0.2919,0.0269,0.0,0.0,0.0,0.0,0.0,0.0,0.0,0.0,0.0,0.0,0.0,0.0,0.0,0.0,0.0,0.0,0.0,0.0,0.0,0.0,0.0,0.0,0.0,0.0,0.0,0.0,0.0,0.0,0.0,0.0,0.0,0.0,0.0,0.0,0.0,0.0,0.0,0.0,0.0,0.0,0.0,0.0,0.0,0.0,0.0,0.0,0.0,0.0,0.0,0.0,0.0,0.0,0.0,0.0,0.0,0.0,0.0,0.0,0.0,0.0,0.0,0.0,0.0,0.0,0.0,0.0,0.0,0.0,0.0,0.0,0.0,0.0,0.0,0.0,0.0,0.0,0.0,0.0,0.0,0.0,0.0,0.0,0.0,0.0,0.0,0.0,0.0,0.0,0.0,0.0,0.0,0.0,0.0,0.0,0.0,0.0,0.0,0.0,0.0,0.0,0.0,0.0,0.0,0.0,0.0,0.0,0.3379,0.2616,0.2899,0.1854,0.08,0.0,0.0,0.0,0.0,0.0,0.0,0.0,0.0,0.0,0.0,0.0,0.0,0.0,0.0,0.0,0.0,0.0,0.0,0.0,0.0,0.0,0.0,0.0,0.0,0.0,0.0,0.0,0.0,0.0,0.0,0.0,0.0,0.0,0.0,0.0,0.0,0.0,0.0,0.0,0.0,0.0,0.0,0.0,0.0,0.0,0.0,0.0,0.0,0.0,0.0,0.0,0.0,0.0,0.0,0.0,0.0,0.0,0.0,0.0,0.0,0.0,0.0,0.0,0.0,0.0,0.0,0.0,0.0,0.0,0.0,0.0,0.0,0.0,0.0,0.0,0.0,0.0,0.0,0.0,0.0,0.0,0.0,0.0,0.0,0.0,0.0,0.0,0.0,0.0,0.0,0.0,0.0,0.0,0.0,0.0,0.0,0.0,0.0,0.0,0.0,0.0,0.0,0.0,0.0,0.0,0.0,0.0,0.3384,0.3139,0.3427,0.1328,0.0,0.0,0.0,0.0,0.0,0.0,0.0,0.0,0.0,0.0,0.0,0.0,0.0,0.0,0.0,0.0,0.0,0.0,0.0,0.0,0.0,0.0,0.0,0.0,0.0,0.0,0.0,0.0,0.0,0.0,0.0,0.0,0.0,0.0,0.0,0.0,0.0,0.0,0.0,0.0,0.0,0.0,0.0,0.0,0.0,0.0,0.0,0.0,0.0,0.0,0.0,0.0,0.0,0.0,0.0,0.0,0.0,0.0,0.0,0.0,0.0,0.0,0.0,0.0,0.0,0.0,0.0,0.0,0.0,0.0,0.0,0.0,0.0,0.0,0.0,0.0,0.0,0.0,0.0,0.0,0.0,0.0,0.0,0.0,0.0,0.0,0.0,0.0,0.0,0.0,0.0,0.0,0.0,0.0,0.0,0.0,0.0,0.0,0.0,0.0,0.0,0.0,0.0,0.0,0.0,0.0,0.0,0.0,0.4184,0.3673,0.2638,0.1329,0.0268,0.0,0.0,0.0,0.0,0.0,0.0,0.0,0.0,0.0,0.0,0.0,0.0,0.0,0.0,0.0,0.0,0.0,0.0,0.0,0.0,0.0,0.0,0.0,0.0,0.0,0.0,0.0,0.0,0.0,0.0,0.0,0.0,0.0,0.0,0.0,0.0,0.0,0.0,0.0,0.0,0.0,0.0,0.0,0.0,0.0,0.0,0.0,0.0,0.0,0.0,0.0,0.0,0.0,0.0,0.0,0.0,0.0,0.0,0.0,0.0,0.0,0.0,0.0,0.0,0.0,0.0,0.0,0.0,0.0,0.0,0.0,0.0,0.0,0.0,0.0,0.0,0.0,0.0,0.0,0.0,0.0,0.0,0.0,0.0,0.0,0.0,0.0,0.0,0.0,0.0,0.0,0.0,0.0,0.0,0.0,0.0,0.0,0.0,0.0,0.0,0.0,0.0,0.0,0.0,0.0,0.3925,0.3132,0.3706,0.4007,0.399,0.3478,0.242,0.0269,0.0,0.0,0.0,0.0,0.0,0.0,0.0,0.0,0.0,0.0,0.0,0.0,0.0,0.0,0.0,0.0,0.0,0.0,0.0,0.0,0.0,0.0,0.0,0.0,0.0,0.0,0.0,0.0,0.0,0.0,0.0,0.0,0.0,0.0,0.0,0.0,0.0,0.0,0.0,0.0,0.0,0.0,0.0,0.0,0.0,0.0,0.0,0.0,0.0,0.0,0.0,0.0,0.0,0.0,0.0,0.0,0.0,0.0,0.0,0.0,0.0,0.0,0.0,0.0,0.0,0.0,0.0,0.0,0.0,0.0,0.0,0.0,0.0,0.0,0.0,0.0,0.0,0.0,0.0,0.0,0.0,0.0,0.0,0.0,0.0,0.0,0.0,0.0,0.0,0.0,0.0,0.0,0.0,0.0,0.0,0.0,0.0,0.0,0.0,0.0,0.0,0.0,0.8335,0.7345,0.7117,0.7333,0.8741,0.8815,0.6655,0.5089,0.3767,0.2154,0.0813,0.0,0.0,0.0,0.0,0.0,0.0,0.0,0.0,0.0,0.0,0.0,0.0,0.0,0.0,0.0,0.0,0.0,0.0,0.0,0.0,0.0,0.0,0.0,0.0,0.0,0.0,0.0,0.0,0.0,0.0,0.0,0.0,0.0,0.0,0.0,0.0,0.0,0.0,0.0,0.0,0.0,0.0,0.0,0.0,0.0,0.0,0.0,0.0,0.0,0.0,0.0,0.0,0.0,0.0,0.0,0.0,0.0,0.0,0.0,0.0,0.0,0.0,0.0,0.0,0.0,0.0,0.0,0.0,0.0,0.0,0.0,0.0,0.0,0.0,0.0,0.0,0.0,0.0,0.0,0.0,0.0,0.0,0.0,0.0,0.0,0.0,0.0,0.0,0.0,0.0,0.0,0.0,0.0,0.0,0.0,0.0,0.0,0.0,0.0,0.0,1.095,1.2479,1.1413,1.0863,1.2371,1.4056,1.3597,0.9852,0.7223,0.5371,0.4305,0.217,0.0544,0.0,0.0,0.0,0.0,0.0,0.0,0.0,0.0,0.0,0.0,0.0,0.0,0.0,0.0,0.0,0.0,0.0,0.0,0.0,0.0,0.0,0.0,0.0,0.0,0.0,0.0,0.0,0.0,0.0,0.0,0.0,0.0,0.0,0.0,0.0,0.0,0.0,0.0,0.0,0.0,0.0,0.0,0.0,0.0,0.0,0.0,0.0,0.0,0.0,0.0,0.0,0.0,0.0,0.0,0.0,0.0,0.0,0.0,0.0,0.0,0.0,0.0,0.0,0.0,0.0,0.0,0.0,0.0,0.0,0.0,0.0,0.0,0.0,0.0,0.0,0.0,0.0,0.0,0.0,0.0,0.0,0.0,0.0,0.0,0.0,0.0,0.0,0.0,0.0,0.0,0.0,0.0,0.0,0.0,0.0,0.0,0.0,0.0,1.095,1.1877,1.2727,1.2801,1.2555,1.2727,1.3133,1.2952,1.2336,1.2065,0.9657,0.4832,0.4076,0.2739,0.0274,0.0,0.0,0.0,0.0,0.0,0.0,0.0,0.0,0.0,0.0,0.0,0.0,0.0,0.0,0.0,0.0,0.0,0.0,0.0,0.0,0.0,0.0,0.0,0.0,0.0,0.0,0.0,0.0,0.0,0.0,0.0,0.0,0.0,0.0,0.0,0.0,0.0,0.0,0.0,0.0,0.0,0.0,0.0,0.0,0.0,0.0,0.0,0.0,0.0,0.0,0.0,0.0,0.0,0.0,0.0,0.0,0.0,0.0,0.0,0.0,0.0,0.0,0.0,0.0,0.0,0.0,0.0,0.0,0.0,0.0,0.0,0.0,0.0,0.0,0.0,0.0,0.0,0.0,0.0,0.0,0.0,0.0,0.0,0.0,0.0,0.0,0.0,0.0,0.0,0.0,0.0,0.0,0.0,0.0,0.0,1.1248,1.3001,1.4264,1.4967,1.5214,1.6646,1.7718,1.7527,1.7656,1.7212,1.5543,1.5277,1.3154,0.729,0.5177,0.3566,0.1375,0.055,0.0,0.0,0.0,0.0,0.0,0.0,0.0,0.0,0.0,0.0,0.0,0.0,0.0,0.0,0.0,0.0,0.0,0.0,0.0,0.0,0.0,0.0,0.0,0.0,0.0,0.0,0.0,0.0,0.0,0.0,0.0,0.0,0.0,0.0,0.0,0.0,0.0,0.0,0.0,0.0,0.0,0.0,0.0,0.0,0.0,0.0,0.0,0.0,0.0,0.0,0.0,0.0,0.0,0.0,0.0,0.0,0.0,0.0,0.0,0.0,0.0,0.0,0.0,0.0,0.0,0.0,0.0,0.0,0.0,0.0,0.0,0.0,0.0,0.0,0.0,0.0,0.0,0.0,0.0,0.0,0.0,0.0,0.0,0.0,0.0,0.0,0.0,0.0,0.0,0.0,0.0,0.0,0.0,1.5326,1.4357,1.6725,1.7299,1.7534,1.8024,2.0241,2.1584,2.1299,2.1408,2.0671,1.8488,1.8216,1.6384,1.1377,0.7906,0.4935,0.3029,0.11,0.0,0.0,0.0,0.0,0.0,0.0,0.0,0.0,0.0,0.0,0.0,0.0,0.0,0.0,0.0,0.0,0.0,0.0,0.0,0.0,0.0,0.0,0.0,0.0,0.0,0.0,0.0,0.0,0.0,0.0,0.0,0.0,0.0,0.0,0.0,0.0,0.0,0.0,0.0,0.0,0.0,0.0,0.0,0.0,0.0,0.0,0.0,0.0,0.0,0.0,0.0,0.0,0.0,0.0,0.0,0.0,0.0,0.0,0.0,0.0,0.0,0.0,0.0,0.0,0.0,0.0,0.0,0.0,0.0,0.0,0.0,0.0,0.0,0.0,0.0,0.0,0.0,0.0,0.0,0.0,0.0,0.0,0.0,0.0,0.0,0.0,0.0,0.0,0.0,0.0,0.0,0.0,0.0,1.858,1.7666,2.0606,1.9032,1.8263,2.1096,2.1665,2.1618,2.1455,2.1564,2.1597,2.1189,2.1169,2.0158,1.7315,1.2527,0.8232,0.4702,0.1654,0.0,0.0,0.0,0.0,0.0,0.0,0.0,0.0,0.0,0.0,0.0,0.0,0.0,0.0,0.0,0.0,0.0,0.0,0.0,0.0,0.0,0.0,0.0,0.0,0.0,0.0,0.0,0.0,0.0,0.0,0.0,0.0,0.0,0.0,0.0,0.0,0.0,0.0,0.0,0.0,0.0,0.0,0.0,0.0,0.0,0.0,0.0,0.0,0.0,0.0,0.0,0.0,0.0,0.0,0.0,0.0,0.0,0.0,0.0,0.0,0.0,0.0,0.0,0.0,0.0,0.0,0.0,0.0,0.0,0.0,0.0,0.0,0.0,0.0,0.0,0.0,0.0,0.0,0.0,0.0,0.0,0.0,0.0,0.0,0.0,0.0,0.0,0.0,0.0,0.0,0.0,1.8322,2.0245,2.0044,2.0025,2.1116,2.0639,2.0379,2.1243,2.1686,2.1726,2.1475,2.1652,2.1794,2.1726,2.1638,2.0631,1.7921,1.5992,1.1892,0.5041,0.3611,0.1933,0.0,0.0,0.0,0.0,0.0,0.0,0.0,0.0,0.0,0.0,0.0,0.0,0.0,0.0,0.0,0.0,0.0,0.0,0.0,0.0,0.0,0.0,0.0,0.0,0.0,0.0,0.0,0.0,0.0,0.0,0.0,0.0,0.0,0.0,0.0,0.0,0.0,0.0,0.0,0.0,0.0,0.0,0.0,0.0,0.0,0.0,0.0,0.0,0.0,0.0,0.0,0.0,0.0,0.0,0.0,0.0,0.0,0.0,0.0,0.0,0.0,0.0,0.0,0.0,0.0,0.0,0.0,0.0,0.0,0.0,0.0,0.0,0.0,0.0,0.0,0.0,0.0,0.0,0.0,0.0,0.0,0.0,1.3435,0.0,0.0,0.0,0.0,0.0,1.7982,0.0,1.9203,2.0261,2.0668,2.0967,2.1367,2.1441,2.1475,2.1564,2.1848,2.195,2.1706,2.1916,2.2079,2.1971,2.1882,2.1115,1.9437,1.8284,1.5276,0.9547,0.7513,0.4983,0.1664,0.0549,0.0,0.0,0.0,0.0,0.0,0.0,0.0,0.0,0.0,0.0,0.0,0.0,0.0,0.0,0.0,0.0,0.0,0.0,0.0,0.0,0.0,0.0,0.0,0.0,0.0,0.0,0.0,0.0,0.0,0.0,0.0,0.0,0.0,0.0,0.0,0.0,0.0,0.0,0.0,0.0,0.0,0.0,0.0,0.0,0.0,0.0,0.0,0.0,0.0,0.0,0.0,0.0,0.0,0.0,0.0,0.0,0.0,0.0,0.0,0.0,0.0,0.0,0.0,0.0,0.0,0.0,0.0,0.0,0.0,0.0,0.0,0.0,0.0,0.0,0.0,0.0,0.0,0.0,0.0,0.0,0.0,0.0,0.0,0.0,0.0,0.0,1.7168,0.0,1.864,1.9997,2.0397,2.0716,2.1333,2.1455,2.1564,2.1848,2.2147,2.2289,2.2127,2.2357,2.2445,2.216,2.2127,2.2113,2.2127,1.9366,1.775,1.7864,1.3307,0.8845,0.4981,0.1651,0.0,0.0,0.0,0.0,0.0,0.0,0.0,0.0,0.0,0.0,0.0,0.0,0.0,0.0,0.0,0.0,0.0,0.0,0.0,0.0,0.0,0.0,0.0,0.0,0.0,0.0,0.0,0.0,0.0,0.0,0.0,0.0,0.0,0.0,0.0,0.0,0.0,0.0,0.0,0.0,0.0,0.0,0.0,0.0,0.0,0.0,0.0,0.0,0.0,0.0,0.0,0.0,0.0,0.0,0.0,0.0,0.0,0.0,0.0,0.0,0.0,0.0,0.0,0.0,0.0,0.0,0.0,0.0,0.0,0.0,0.0,0.0,0.0,0.0,0.0,0.0,0.0,0.0,0.0,0.0,1.2732,0.0,0.0,0.0,0.0,0.0,0.0,0.0,1.7141,1.8708,1.9569,2.0349,2.1265,2.1706,2.1984,2.2181,2.2378,2.2411,2.2147,2.2357,2.252,2.2445,2.2344,2.2323,2.2432,2.1592,2.0196,1.7989,1.6759,1.3919,0.9208,0.3315,0.0,0.0,0.0,0.0,0.0,0.0,0.0,0.0,0.0,0.0,0.0,0.0,0.0,0.0,0.0,0.0,0.0,0.0,0.0,0.0,0.0,0.0,0.0,0.0,0.0,0.0,0.0,0.0,0.0,0.0,0.0,0.0,0.0,0.0,0.0,0.0,0.0,0.0,0.0,0.0,0.0,0.0,0.0,0.0,0.0,0.0,0.0,0.0,0.0,0.0,0.0,0.0,0.0,0.0,0.0,0.0,0.0,0.0,0.0,0.0,0.0,0.0,0.0,0.0,0.0,0.0,0.0,0.0,0.0,0.0,0.0,0.0,0.0,0.0,0.0,0.0,0.0,0.0,0.0,0.0,1.2766,0.0,0.0,0.0,0.0,0.0,1.5031,1.5723,1.6564,1.8267,1.9047,1.9766,2.0946,2.1177,2.1387,2.2038,2.2269,2.2378,2.2391,2.2534,2.2642,2.2642,2.252,2.2445,2.2466,2.252,2.1677,1.9936,1.9906,1.7084,1.0908,0.4448,0.0552,0.0,0.0,0.0,0.0,0.0,0.0,0.0,0.0,0.0,0.0,0.0,0.0,0.0,0.0,0.0,0.0,0.0,0.0,0.0,0.0,0.0,0.0,0.0,0.0,0.0,0.0,0.0,0.0,0.0,0.0,0.0,0.0,0.0,0.0,0.0,0.0,0.0,0.0,0.0,0.0,0.0,0.0,0.0,0.0,0.0,0.0,0.0,0.0,0.0,0.0,0.0,0.0,0.0,0.0,0.0,0.0,0.0,0.0,0.0,0.0,0.0,0.0,0.0,0.0,0.0,0.0,0.0,0.0,0.0,0.0,0.0,0.0,0.0,0.0,0.0,0.0,0.0,0.0,0.0,1.284,1.2949,0.0,0.0,0.0,0.0,1.5167,1.5716,1.6341,1.8036,1.8443,1.8884,2.0207,2.0051,2.0119,2.1299,2.1726,2.2113,2.2676,2.2764,2.2784,2.2764,2.2656,2.252,2.2357,2.2466,2.25,2.2378,2.2194,1.8832,1.1452,0.5597,0.1673,0.0,0.0,0.0,0.0,0.0,0.0,0.0,0.0,0.0,0.0,0.0,0.0,0.0,0.0,0.0,0.0,0.0,0.0,0.0,0.0,0.0,0.0,0.0,0.0,0.0,0.0,0.0,0.0,0.0,0.0,0.0,0.0,0.0,0.0,0.0,0.0,0.0,0.0,0.0,0.0,0.0,0.0,0.0,0.0,0.0,0.0,0.0,0.0,0.0,0.0,0.0,0.0,0.0,0.0,0.0,0.0,0.0,0.0,0.0,0.0,0.0,0.0,0.0,0.0,0.0,0.0,0.0,0.0,0.0,0.0,0.0,0.0,0.0,0.0,0.0,0.0,0.0,0.0,0.0,1.3037,1.2956,1.2888,0.0,0.0,0.0,0.0,1.4095,1.4767,1.5845,1.6449,1.7127,1.8233,1.864,1.885,1.8993,1.9942,2.1123,2.2411,2.271,2.273,2.2608,2.2676,2.2642,2.2357,2.2466,2.2534,2.252,2.0288,1.8027,1.5738,0.8123,0.2793,0.0,0.0,0.0,0.0,0.0,0.0,0.0,0.0,0.0,0.0,0.0,0.0,0.0,0.0,0.0,0.0,0.0,0.0,0.0,0.0,0.0,0.0,0.0,0.0,0.0,0.0,0.0,0.0,0.0,0.0,0.0,0.0,0.0,0.0,0.0,0.0,0.0,0.0,0.0,0.0,0.0,0.0,0.0,0.0,0.0,0.0,0.0,0.0,0.0,0.0,0.0,0.0,0.0,0.0,0.0,0.0,0.0,0.0,0.0,0.0,0.0,0.0,0.0,0.0,0.0,0.0,0.0,0.0,0.0,0.0,0.0,0.0,0.0,0.0,0.0,0.0,0.0,0.0,0.0,1.3173,1.3119,1.3119,1.3342,0.0,0.0,0.0,0.0,1.4502,1.5255,1.5649,1.6157,1.7127,1.7311,1.7507,1.8111,1.9271,2.0363,2.1109,2.1862,2.2357,2.2445,2.2445,2.2411,2.2337,2.2466,2.252,2.2445,1.9639,1.7678,1.7394,1.3191,0.8704,0.4491,0.4497,0.4501,0.4783,0.4783,0.4809,0.4854,0.4854,0.488,0.4928,0.498,0.2953,0.0,0.0,0.0,0.0,0.0,0.0,0.0,0.0,0.0,0.0,0.0,0.0,0.0,0.0,0.0,0.0,0.0,0.0,0.0,0.0,0.0,0.0,0.0,0.0,0.0,0.0,0.0,0.0,0.0,0.0,0.0,0.0,0.0,0.0,0.0,0.0,0.0,0.0,0.0,0.0,0.0,0.0,0.0,0.0,0.0,0.0,0.0,0.0,0.0,0.0,0.0,0.0,0.0,0.0,0.0,0.0,0.0,0.0,0.0,0.0,0.0,0.0,0.0,0.0,0.0,0.0,0.0,0.0,0.0,0.0,0.0,0.0,1.3451,0.0,0.0,0.0,0.0,0.0,0.0,1.6049,1.592,1.6049,1.7141,1.8375,1.9183,1.9183,2.0349,2.1408,2.1971,2.2072,2.2127,2.2201,2.2323,2.2378,2.2337,2.0019,1.861,1.8667,1.7715,1.5257,1.1571,1.0445,1.02,1.1415,1.1364,1.1426,1.131,1.1582,1.1637,1.1463,1.1556,0.8629,0.358,0.2409,0.1207,0.0,0.0,0.0,0.0,0.0,0.0,0.0,0.0,0.0,0.0,0.0,0.0,0.0,0.0,0.0,0.0,0.0,0.0,0.0,0.0,0.0,0.0,0.0,0.0,0.0,0.0,0.0,0.0,0.0,0.0,0.0,0.0,0.0,0.0,0.0,0.0,0.0,0.0,0.0,0.0,0.0,0.0,0.0,0.0,0.0,0.0,0.0,0.0,0.0,0.0,0.0,0.0,0.0,0.0,0.0,0.0,0.0,0.0,0.0,0.0,0.0,0.0,0.0,0.0,0.0,0.0,0.0,0.0,1.3804,0.0,0.0,0.0,0.0,0.0,0.0,0.0,0.0,0.0,0.0,1.4502,1.5757,1.6714,1.6714,1.788,1.9271,2.077,2.1638,2.2025,2.1774,2.176,2.1937,2.2303,2.1692,2.1308,2.1566,1.877,1.8071,2.0098,1.5552,1.4195,1.7183,1.7747,1.8047,1.7514,1.8099,1.8263,1.8305,1.8208,1.781,1.7081,1.1204,0.5449,0.0,0.0,0.0,0.0,0.0,0.0,0.0,0.0,0.0,0.0,0.0,0.0,0.0,0.0,0.0,0.0,0.0,0.0,0.0,0.0,0.0,0.0,0.0,0.0,0.0,0.0,0.0,0.0,0.0,0.0,0.0,0.0,0.0,0.0,0.0,0.0,0.0,0.0,0.0,0.0,0.0,0.0,0.0,0.0,0.0,0.0,0.0,0.0,0.0,0.0,0.0,0.0,0.0,0.0,0.0,0.0,0.0,0.0,0.0,0.0,0.0,0.0,0.0,0.0,0.0,0.0,0.0,0.0,0.0,0.0,0.0,0.0,1.3498,0.0,0.0,0.0,0.0,0.0,0.0,0.0,1.5391,0.0,1.6069,1.7283,1.8511,1.9379,1.98,2.0085,2.0227,2.056,2.0878,2.1157,2.1319,2.153,2.1848,2.0896,2.0275,2.0796,1.8676,1.7994,1.8495,1.8732,1.8859,1.8919,1.9301,1.9411,1.9555,1.9354,1.9495,1.9369,1.6768,1.4034,1.1033,0.726,0.3611,0.0,0.0,0.0,0.0,0.0,0.0,0.0,0.0,0.0,0.0,0.0,0.0,0.0,0.0,0.0,0.0,0.0,0.0,0.0,0.0,0.0,0.0,0.0,0.0,0.0,0.0,0.0,0.0,0.0,0.0,0.0,0.0,0.0,0.0,0.0,0.0,0.0,0.0,0.0,0.0,0.0,0.0,0.0,0.0,0.0,0.0,0.0,0.0,0.0,0.0,0.0,0.0,0.0,0.0,0.0,0.0,0.0,0.0,0.0,0.0,0.0,1.4509,0.0,0.0,0.0,0.0,0.0,0.0,0.0,0.0,0.0,0.0,0.0,0.0,0.0,0.0,0.0,0.0,1.5737,1.5513,1.6456,0.0,0.0,0.0,1.8674,1.9149,1.9413,1.9766,2.0295,2.0539,2.0912,2.1509,2.1833,2.1553,2.0338,2.0324,2.0026,1.9142,1.908,1.9299,1.9775,1.982,1.991,2.001,1.9776,1.9891,2.0324,1.9903,1.9914,1.9085,1.4597,0.9671,0.5125,0.332,0.1503,0.0,0.0,0.0,0.0,0.0,0.0,0.0,0.0,0.0,0.0,0.0,0.0,0.0,0.0,0.0,0.0,0.0,0.0,0.0,0.0,0.0,0.0,0.0,0.0,0.0,0.0,0.0,0.0,0.0,0.0,0.0,0.0,0.0,0.0,0.0,0.0,0.0,0.0,0.0,0.0,0.0,0.0,0.0,0.0,0.0,0.0,0.0,0.0,0.0,0.0,0.0,0.0,0.0,0.0,0.0,0.0,0.0,0.0,0.0,0.0,0.0,1.4862,0.0,0.0,0.0,0.0,1.4007,0.0,0.0,0.0,0.0,0.0,0.0,0.0,0.0,0.0,0.0,0.0,0.0,0.0,0.0,0.0,1.9149,1.8565,1.8762,2.022,1.9678,1.9834,2.1157,2.0985,2.1037,2.1018,2.0468,2.0446,2.0715,2.0856,2.0996,2.1155,2.1662,2.1772,2.1552,2.0902,2.1089,2.1816,2.1071,2.0128,1.923,1.9517,1.9419,1.8354,1.2062,0.5433,0.0,0.0,0.0,0.0,0.0,0.0,0.0,0.0,0.0,0.0,0.0,0.0,0.0,0.0,0.0,0.0,0.0,0.0,0.0,0.0,0.0,0.0,0.0,0.0,0.0,0.0,0.0,0.0,0.0,0.0,0.0,0.0,0.0,0.0,0.0,0.0,0.0,0.0,0.0,0.0,0.0,0.0,0.0,0.0,0.0,0.0,0.0,0.0,0.0,0.0,0.0,0.0,0.0,0.0,0.0,0.0,0.0,0.0,0.0,0.0,1.6232,1.5628,0.0,0.0,0.0,0.0,0.0,0.0,0.0,0.0,0.0,0.0,0.0,0.0,0.0,0.0,0.0,0.0,0.0,0.0,0.0,0.0,0.0,1.7154,1.7609,1.8213,1.8389,1.9006,2.0261,2.0734,2.1063,2.0998,2.11,2.1154,2.0844,2.0905,2.1082,2.14,2.1748,2.187,2.1791,2.1768,2.1912,2.2255,2.1906,2.1624,2.1388,2.0918,2.0212,1.9549,1.7057,1.4871,1.1805,0.3031,0.0,0.0,0.0,0.0,0.0,0.0,0.0,0.0,0.0,0.0,0.0,0.0,0.0,0.0,0.0,0.0,0.0,0.0,0.0,0.0,0.0,0.0,0.0,0.0,0.0,0.0,0.0,0.0,0.0,0.0,0.0,0.0,0.0,0.0,0.0,0.0,0.0,0.0,0.0,0.0,0.0,0.0,0.0,0.0,0.0,0.0,0.0,0.0,0.0,0.0,0.0,0.0,0.0,0.0,0.0,0.0,1.7982,1.7772,0.0,1.6931,1.6368,0.0,1.4923,0.0,0.0,0.0,0.0,0.0,0.0,0.0,0.0,0.0,0.0,0.0,0.0,1.4509,0.0,0.0,0.0,0.0,0.0,1.613,1.6578,1.7148,1.7405,1.8057,1.9257,2.0275,2.0821,2.0808,2.1559,2.2043,2.1711,2.1806,2.2023,2.2354,2.2716,2.2882,2.285,2.2818,2.295,2.3263,2.2943,2.2962,2.2679,2.2249,2.1206,2.0476,2.0156,1.9787,1.787,0.4833,0.0,0.0,0.0,0.0,0.0,0.0,0.0,0.0,0.0,0.0,0.0,0.0,0.0,0.0,0.0,0.0,0.0,0.0,0.0,0.0,0.0,0.0,0.0,0.0,0.0,0.0,0.0,0.0,0.0,0.0,0.0,0.0,0.0,0.0,0.0,0.0,0.0,0.0,0.0,0.0,0.0,0.0,0.0,0.0,0.0,0.0,0.0,0.0,0.0,0.0,0.0,0.0,0.0,0.0,0.0,0.0]}]]